Time,TemperatureF,DewpointF,PressureIn,WindDirection,WindDirectionDegrees,WindSpeedMPH,WindSpeedGustMPH,Humidity,HourlyPrecipIn,Conditions,Clouds,dailyrainin,SoftwareType,DateUTC
2013-03-11 00:00:00,48.5,45.7,29.65,SW,223,0.0,8.0,90,0.00,,OVC025,0.47,VWS V14.01,2013-03-11 05:00:00,
2013-03-11 00:01:00,48.5,45.7,29.65,WSW,244,0.0,4.0,90,0.00,,OVC025,0.47,VWS V14.01,2013-03-11 05:01:00,
2013-03-11 00:03:00,48.5,45.4,29.65,SW,233,1.0,4.0,89,0.00,,OVC095,0.47,VWS V14.01,2013-03-11 05:03:00,
2013-03-11 00:04:00,48.4,45.3,29.65,SW,225,0.0,6.0,89,0.00,,OVC095,0.47,VWS V14.01,2013-03-11 05:04:00,
2013-03-11 00:05:00,48.4,45.3,29.65,SW,225,0.0,6.0,89,0.00,,OVC095,0.47,VWS V14.01,2013-03-11 05:05:00,
2013-03-11 00:07:00,48.4,45.3,29.65,SSW,209,3.0,7.0,89,0.00,,OVC095,0.47,VWS V14.01,2013-03-11 05:07:00,
2013-03-11 00:08:00,48.4,45.3,29.65,SW,214,0.0,7.0,89,0.00,,OVC095,0.47,VWS V14.01,2013-03-11 05:08:00,
2013-03-11 00:09:00,48.2,45.1,29.65,SW,215,4.0,7.0,89,0.00,,OVC095,0.47,VWS V14.01,2013-03-11 05:09:00,
2013-03-11 00:10:00,48.2,45.1,29.65,SSW,192,2.0,7.0,89,0.00,,OVC095,0.47,VWS V14.01,2013-03-11 05:10:00,
2013-03-11 00:12:00,48.2,45.1,29.65,SW,217,0.0,7.0,89,0.00,,OVC095,0.47,VWS V14.01,2013-03-11 05:12:00,
2013-03-11 00:13:00,48.2,45.1,29.65,WSW,246,3.0,7.0,89,0.00,,OVC095,0.47,VWS V14.01,2013-03-11 05:13:00,
2013-03-11 00:15:00,48.2,45.1,29.64,SW,223,0.0,7.0,89,0.00,,OVC095,0.47,VWS V14.01,2013-03-11 05:15:00,
2013-03-11 00:17:00,48.1,44.7,29.64,SSW,208,0.0,7.0,88,0.00,,OVC095,0.47,VWS V14.01,2013-03-11 05:17:00,
2013-03-11 00:18:00,48.1,44.7,29.64,SSW,208,0.0,7.0,88,0.00,,OVC095,0.47,VWS V14.01,2013-03-11 05:18:00,
2013-03-11 00:20:00,48.1,44.7,29.64,SSW,209,0.0,7.0,88,0.00,,OVC095,0.47,VWS V14.01,2013-03-11 05:20:00,
2013-03-11 00:22:00,48.1,44.7,29.64,SW,232,3.0,7.0,88,0.00,,OVC095,0.47,VWS V14.01,2013-03-11 05:22:00,
2013-03-11 00:23:00,48.1,44.7,29.64,SW,227,0.0,7.0,88,0.00,,OVC095,0.47,VWS V14.01,2013-03-11 05:23:00,
2013-03-11 00:25:00,48.1,44.7,29.64,SW,223,0.0,7.0,88,0.00,,OVC095,0.47,VWS V14.01,2013-03-11 05:25:00,
2013-03-11 00:27:00,47.9,44.5,29.64,WSW,240,2.0,7.0,88,0.00,,OVC095,0.47,VWS V14.01,2013-03-11 05:27:00,
2013-03-11 00:28:00,47.9,44.5,29.64,WSW,242,0.0,7.0,88,0.00,,OVC095,0.47,VWS V14.01,2013-03-11 05:28:00,
2013-03-11 00:30:00,47.9,44.5,29.64,WSW,240,0.0,0.0,88,0.00,,OVC095,0.47,VWS V14.01,2013-03-11 05:30:00,
2013-03-11 00:33:00,47.9,44.5,29.64,WSW,239,0.0,0.0,88,0.00,,OVC095,0.47,VWS V14.01,2013-03-11 05:33:00,
2013-03-11 00:35:00,47.8,44.4,29.64,WSW,238,0.0,3.0,88,0.00,,OVC095,0.47,VWS V14.01,2013-03-11 05:35:00,
2013-03-11 00:38:00,47.8,44.4,29.64,WSW,238,0.0,3.0,88,0.00,,OVC095,0.47,VWS V14.01,2013-03-11 05:38:00,
2013-03-11 00:40:00,47.6,44.2,29.64,WSW,238,0.0,3.0,88,0.00,,OVC095,0.47,VWS V14.01,2013-03-11 05:40:00,
2013-03-11 00:41:00,47.6,44.2,29.64,WSW,238,0.0,3.0,88,0.00,,OVC095,0.47,VWS V14.01,2013-03-11 05:41:00,
2013-03-11 00:43:00,47.6,44.2,29.64,WSW,238,0.0,3.0,88,0.00,,OVC095,0.47,VWS V14.01,2013-03-11 05:43:00,
2013-03-11 00:45:00,47.6,44.2,29.64,WSW,237,0.0,3.0,88,0.00,,-RA,0.47,VWS V14.01,2013-03-11 05:45:00,
2013-03-11 00:46:00,47.6,44.2,29.64,SW,236,0.0,3.0,88,0.00,,-RA,0.47,VWS V14.01,2013-03-11 05:46:00,
2013-03-11 00:48:00,47.5,44.1,29.64,SW,236,0.0,3.0,88,0.00,,-RA,0.47,VWS V14.01,2013-03-11 05:48:00,
2013-03-11 00:49:00,47.5,44.1,29.64,SW,236,0.0,3.0,88,0.00,,-RA,0.47,VWS V14.01,2013-03-11 05:49:00,
2013-03-11 00:50:00,47.5,44.1,29.64,SW,223,0.0,3.0,88,0.00,,-RA,0.47,VWS V14.01,2013-03-11 05:50:00,
2013-03-11 00:52:00,47.5,44.1,29.64,SW,225,0.0,3.0,88,0.00,,-RA,0.47,VWS V14.01,2013-03-11 05:52:00,
2013-03-11 00:53:00,47.5,44.1,29.64,SW,227,0.0,3.0,88,0.00,,-RA,0.47,VWS V14.01,2013-03-11 05:53:00,
2013-03-11 00:54:00,47.5,44.1,29.64,SW,227,0.0,3.0,88,0.00,,-RA,0.47,VWS V14.01,2013-03-11 05:54:00,
2013-03-11 00:55:00,47.5,44.1,29.64,SW,227,0.0,3.0,88,0.00,,-RA,0.47,VWS V14.01,2013-03-11 05:55:00,
2013-03-11 00:57:00,47.3,43.9,29.64,SW,227,0.0,3.0,88,0.00,,-RA,0.47,VWS V14.01,2013-03-11 05:57:00,
2013-03-11 00:58:00,47.3,43.9,29.64,SW,228,3.0,3.0,88,0.00,,-RA,0.47,VWS V14.01,2013-03-11 05:58:00,
2013-03-11 00:59:00,47.3,43.9,29.64,SW,228,0.0,3.0,88,0.00,,-RA,0.47,VWS V14.01,2013-03-11 05:59:00,
2013-03-11 01:00:00,47.3,43.9,29.64,SW,228,0.0,0.0,88,0.00,,-RA,0.00,VWS V14.01,2013-03-11 06:00:00,
2013-03-11 01:03:00,47.3,43.9,29.64,SW,233,0.0,5.0,88,0.00,,BKN090,0.00,VWS V14.01,2013-03-11 06:03:00,
2013-03-11 01:04:00,47.2,43.8,29.64,WSW,241,0.0,5.0,88,0.00,,BKN090,0.00,VWS V14.01,2013-03-11 06:04:00,
2013-03-11 01:05:00,47.2,43.8,29.64,SW,236,4.0,6.0,88,0.00,,BKN090,0.00,VWS V14.01,2013-03-11 06:05:00,
2013-03-11 01:08:00,47.2,43.8,29.64,SW,215,0.0,6.0,88,0.00,,BKN090,0.00,VWS V14.01,2013-03-11 06:08:00,
2013-03-11 01:09:00,47.2,43.8,29.64,SW,215,0.0,6.0,88,0.00,,BKN090,0.00,VWS V14.01,2013-03-11 06:09:00,
2013-03-11 01:11:00,47.2,43.8,29.64,WSW,254,0.0,6.0,88,0.00,,BKN090,0.00,VWS V14.01,2013-03-11 06:11:00,
2013-03-11 01:13:00,47.2,43.8,29.64,WSW,248,0.0,6.0,88,0.00,,BKN090,0.00,VWS V14.01,2013-03-11 06:13:00,
2013-03-11 01:14:00,47.0,43.6,29.65,SW,229,0.0,6.0,88,0.00,,BKN090,0.00,VWS V14.01,2013-03-11 06:14:00,
2013-03-11 01:16:00,47.0,43.6,29.65,SW,229,0.0,6.0,88,0.00,,BKN090,0.00,VWS V14.01,2013-03-11 06:16:00,
2013-03-11 01:18:00,47.0,43.6,29.65,SW,232,1.0,6.0,88,0.00,,BKN090,0.00,VWS V14.01,2013-03-11 06:18:00,
2013-03-11 01:20:00,47.0,43.6,29.65,WSW,246,0.0,6.0,88,0.00,,BKN090,0.00,VWS V14.01,2013-03-11 06:20:00,
2013-03-11 01:21:00,47.0,43.6,29.65,SW,219,3.0,11.0,88,0.00,,BKN090,0.00,VWS V14.01,2013-03-11 06:21:00,
2013-03-11 01:23:00,46.9,43.5,29.65,SW,220,0.0,11.0,88,0.00,,BKN090,0.00,VWS V14.01,2013-03-11 06:23:00,
2013-03-11 01:25:00,46.9,43.5,29.65,SW,221,0.0,11.0,88,0.00,,BKN090,0.00,VWS V14.01,2013-03-11 06:25:00,
2013-03-11 01:27:00,46.9,43.5,29.65,SW,223,0.0,11.0,88,0.00,,BKN090,0.00,VWS V14.01,2013-03-11 06:27:00,
2013-03-11 01:28:00,46.9,43.5,29.65,SW,223,0.0,11.0,88,0.00,,BKN090,0.00,VWS V14.01,2013-03-11 06:28:00,
2013-03-11 01:30:00,46.7,43.3,29.65,SW,225,1.0,1.0,88,0.00,,BKN090,0.00,VWS V14.01,2013-03-11 06:30:00,
2013-03-11 01:32:00,46.7,43.3,29.65,WSW,246,0.0,4.0,88,0.00,,BKN090,0.00,VWS V14.01,2013-03-11 06:32:00,
2013-03-11 01:33:00,46.7,43.3,29.65,WNW,298,0.0,4.0,88,0.00,,BKN090,0.00,VWS V14.01,2013-03-11 06:33:00,
2013-03-11 01:35:00,46.6,43.2,29.65,WSW,251,0.0,4.0,88,0.00,,BKN090,0.00,VWS V14.01,2013-03-11 06:35:00,
2013-03-11 01:37:00,46.6,43.2,29.65,WSW,253,0.0,4.0,88,0.00,,BKN090,0.00,VWS V14.01,2013-03-11 06:37:00,
2013-03-11 01:38:00,46.6,43.2,29.65,WSW,253,0.0,4.0,88,0.00,,BKN090,0.00,VWS V14.01,2013-03-11 06:38:00,
2013-03-11 01:39:00,46.4,43.0,29.65,WSW,252,0.0,4.0,88,0.00,,BKN090,0.00,VWS V14.01,2013-03-11 06:39:00,
2013-03-11 01:41:00,46.4,43.0,29.65,SW,228,0.0,5.0,88,0.00,,BKN090,0.00,VWS V14.01,2013-03-11 06:41:00,
2013-03-11 01:42:00,46.3,43.0,29.65,SW,229,3.0,5.0,88,0.00,,BKN090,0.00,VWS V14.01,2013-03-11 06:42:00,
2013-03-11 01:43:00,46.3,43.0,29.65,SW,228,0.0,5.0,88,0.00,,BKN090,0.00,VWS V14.01,2013-03-11 06:43:00,
2013-03-11 01:44:00,46.3,43.0,29.65,SW,228,0.0,5.0,88,0.00,,BKN090,0.00,VWS V14.01,2013-03-11 06:44:00,
2013-03-11 01:46:00,46.3,43.0,29.65,SW,227,0.0,5.0,88,0.00,,OVC070,0.00,VWS V14.01,2013-03-11 06:46:00,
2013-03-11 01:48:00,46.1,43.0,29.65,SW,227,0.0,5.0,89,0.00,,OVC070,0.00,VWS V14.01,2013-03-11 06:48:00,
2013-03-11 01:49:00,46.1,43.0,29.65,SW,227,0.0,5.0,89,0.00,,OVC070,0.00,VWS V14.01,2013-03-11 06:49:00,
2013-03-11 01:51:00,46.0,43.0,29.65,SW,236,0.0,5.0,89,0.00,,OVC070,0.00,VWS V14.01,2013-03-11 06:51:00,
2013-03-11 01:53:00,46.0,43.0,29.65,WSW,237,0.0,5.0,89,0.00,,OVC070,0.00,VWS V14.01,2013-03-11 06:53:00,
2013-03-11 01:54:00,46.0,43.0,29.65,WSW,237,0.0,5.0,89,0.00,,OVC070,0.00,VWS V14.01,2013-03-11 06:54:00,
2013-03-11 01:56:00,45.9,42.8,29.65,WSW,238,0.0,5.0,89,0.00,,OVC070,0.00,VWS V14.01,2013-03-11 06:56:00,
2013-03-11 01:59:00,45.9,42.8,29.65,WSW,239,0.0,5.0,89,0.00,,OVC070,0.00,VWS V14.01,2013-03-11 06:59:00,
2013-03-11 02:00:00,45.9,42.8,29.65,SW,234,0.0,1.0,89,0.00,,OVC070,0.00,VWS V14.01,2013-03-11 07:00:00,
2013-03-11 02:01:00,45.9,42.8,29.65,SW,234,0.0,1.0,89,0.00,,,0.00,VWS V14.01,2013-03-11 07:01:00,
2013-03-11 02:04:00,45.7,42.7,29.65,WSW,244,4.0,5.0,89,0.00,,,0.00,VWS V14.01,2013-03-11 07:04:00,
2013-03-11 02:05:00,45.7,42.7,29.65,WSW,238,3.0,5.0,89,0.00,,,0.00,VWS V14.01,2013-03-11 07:05:00,
2013-03-11 02:07:00,45.7,42.7,29.65,SW,221,0.0,5.0,89,0.00,,,0.00,VWS V14.01,2013-03-11 07:07:00,
2013-03-11 02:09:00,45.6,42.8,29.65,SW,225,3.0,6.0,90,0.00,,,0.00,VWS V14.01,2013-03-11 07:09:00,
2013-03-11 02:10:00,45.6,42.8,29.65,SW,226,3.0,6.0,90,0.00,,,0.00,VWS V14.01,2013-03-11 07:10:00,
2013-03-11 02:12:00,45.6,42.8,29.65,SW,234,4.0,6.0,90,0.00,,,0.00,VWS V14.01,2013-03-11 07:12:00,
2013-03-11 02:14:00,45.6,42.8,29.65,WSW,240,0.0,6.0,90,0.00,,,0.00,VWS V14.01,2013-03-11 07:14:00,
2013-03-11 02:15:00,45.6,42.8,29.65,WSW,240,0.0,6.0,90,0.00,,,0.00,VWS V14.01,2013-03-11 07:15:00,
2013-03-11 02:17:00,45.4,42.6,29.65,WSW,240,5.0,6.0,90,0.00,,,0.00,VWS V14.01,2013-03-11 07:17:00,
2013-03-11 02:19:00,45.4,42.6,29.65,WSW,257,0.0,6.0,90,0.00,,,0.00,VWS V14.01,2013-03-11 07:19:00,
2013-03-11 02:20:00,45.4,42.6,29.65,West,264,0.0,6.0,90,0.00,,,0.00,VWS V14.01,2013-03-11 07:20:00,
2013-03-11 02:21:00,45.4,42.6,29.65,West,271,0.0,6.0,90,0.00,,,0.00,VWS V14.01,2013-03-11 07:21:00,
2013-03-11 02:22:00,45.4,42.6,29.65,SW,231,2.0,6.0,90,0.00,,,0.00,VWS V14.01,2013-03-11 07:22:00,
2013-03-11 02:24:00,45.4,42.6,29.65,SW,231,0.0,6.0,90,0.00,,,0.00,VWS V14.01,2013-03-11 07:24:00,
2013-03-11 02:25:00,45.3,42.5,29.65,SW,232,0.0,6.0,90,0.00,,,0.00,VWS V14.01,2013-03-11 07:25:00,
2013-03-11 02:26:00,45.3,42.5,29.65,SW,232,0.0,6.0,90,0.00,,,0.00,VWS V14.01,2013-03-11 07:26:00,
2013-03-11 02:27:00,45.3,42.5,29.65,SW,234,0.0,6.0,90,0.00,,,0.00,VWS V14.01,2013-03-11 07:27:00,
2013-03-11 02:29:00,45.3,42.5,29.65,West,265,0.0,6.0,90,0.00,,,0.00,VWS V14.01,2013-03-11 07:29:00,
2013-03-11 02:30:00,45.3,42.5,29.65,West,265,0.0,0.0,90,0.00,,,0.00,VWS V14.01,2013-03-11 07:30:00,
2013-03-11 02:31:00,45.3,42.5,29.65,West,267,0.0,0.0,90,0.00,,,0.00,VWS V14.01,2013-03-11 07:31:00,
2013-03-11 02:32:00,45.3,42.5,29.65,West,259,4.0,7.0,90,0.00,,,0.00,VWS V14.01,2013-03-11 07:32:00,
2013-03-11 02:34:00,45.0,42.2,29.65,West,281,5.0,12.0,90,0.01,,,0.01,VWS V14.01,2013-03-11 07:34:00,
2013-03-11 02:35:00,45.0,42.0,29.65,West,277,6.0,12.0,89,0.01,,,0.01,VWS V14.01,2013-03-11 07:35:00,
2013-03-11 02:36:00,45.0,42.2,29.65,WNW,288,8.0,12.0,90,0.01,,,0.01,VWS V14.01,2013-03-11 07:36:00,
2013-03-11 02:38:00,44.7,41.7,29.65,West,267,3.0,13.0,89,0.01,,,0.01,VWS V14.01,2013-03-11 07:38:00,
2013-03-11 02:39:00,44.5,41.5,29.65,West,277,6.0,13.0,89,0.01,,,0.01,VWS V14.01,2013-03-11 07:39:00,
2013-03-11 02:40:00,44.5,41.5,29.65,WNW,292,6.0,13.0,89,0.01,,,0.01,VWS V14.01,2013-03-11 07:40:00,
2013-03-11 02:41:00,44.4,41.4,29.65,West,268,2.0,13.0,89,0.01,,,0.01,VWS V14.01,2013-03-11 07:41:00,
2013-03-11 02:43:00,44.2,41.2,29.65,NW,321,6.0,13.0,89,0.01,,,0.01,VWS V14.01,2013-03-11 07:43:00,
2013-03-11 02:44:00,44.1,41.1,29.64,WSW,252,4.0,13.0,89,0.01,,,0.01,VWS V14.01,2013-03-11 07:44:00,
2013-03-11 02:45:00,44.1,41.1,29.64,West,276,3.0,13.0,89,0.01,,OVC010,0.01,VWS V14.01,2013-03-11 07:45:00,
2013-03-11 02:46:00,44.1,41.1,29.64,WNW,284,5.0,13.0,89,0.01,,OVC010,0.01,VWS V14.01,2013-03-11 07:46:00,
2013-03-11 02:47:00,44.0,41.0,29.64,WNW,290,5.0,13.0,89,0.01,,OVC010,0.01,VWS V14.01,2013-03-11 07:47:00,
2013-03-11 02:49:00,43.7,40.4,29.64,West,260,9.0,13.0,88,0.01,,OVC010,0.01,VWS V14.01,2013-03-11 07:49:00,
2013-03-11 02:50:00,43.5,40.2,29.64,West,267,5.0,13.0,88,0.01,,OVC010,0.01,VWS V14.01,2013-03-11 07:50:00,
2013-03-11 02:51:00,43.5,40.2,29.64,West,265,2.0,13.0,88,0.01,,OVC010,0.01,VWS V14.01,2013-03-11 07:51:00,
2013-03-11 02:53:00,43.5,40.2,29.64,SW,236,0.0,13.0,88,0.01,,OVC010,0.01,VWS V14.01,2013-03-11 07:53:00,
2013-03-11 02:54:00,43.5,40.2,29.64,West,272,4.0,13.0,88,0.01,,OVC010,0.01,VWS V14.01,2013-03-11 07:54:00,
2013-03-11 02:56:00,43.5,40.2,29.64,SW,236,2.0,13.0,88,0.01,,OVC010,0.01,VWS V14.01,2013-03-11 07:56:00,
2013-03-11 02:58:00,43.4,40.1,29.64,West,259,0.0,13.0,88,0.01,,OVC010,0.01,VWS V14.01,2013-03-11 07:58:00,
2013-03-11 03:00:00,43.4,40.1,29.65,WNW,292,6.0,7.0,88,0.01,,OVC010,0.01,VWS V14.01,2013-03-11 08:00:00,
2013-03-11 03:01:00,43.4,40.1,29.65,West,280,0.0,7.0,88,0.01,,OVC012,0.01,VWS V14.01,2013-03-11 08:01:00,
2013-03-11 03:02:00,43.4,39.8,29.65,NW,311,0.0,7.0,87,0.01,,OVC012,0.01,VWS V14.01,2013-03-11 08:02:00,
2013-03-11 03:03:00,43.4,39.8,29.65,WSW,250,0.0,7.0,87,0.01,,OVC012,0.01,VWS V14.01,2013-03-11 08:03:00,
2013-03-11 03:05:00,43.2,39.6,29.65,West,271,0.0,8.0,87,0.01,,OVC012,0.01,VWS V14.01,2013-03-11 08:05:00,
2013-03-11 03:06:00,43.1,39.5,29.65,WSW,251,6.0,10.0,87,0.01,,OVC012,0.01,VWS V14.01,2013-03-11 08:06:00,
2013-03-11 03:07:00,43.1,39.5,29.65,NW,304,9.0,11.0,87,0.01,,OVC012,0.01,VWS V14.01,2013-03-11 08:07:00,
2013-03-11 03:08:00,43.0,39.4,29.65,WNW,284,0.0,11.0,87,0.01,,OVC012,0.01,VWS V14.01,2013-03-11 08:08:00,
2013-03-11 03:10:00,42.8,39.2,29.65,West,267,3.0,11.0,87,0.01,,OVC012,0.01,VWS V14.01,2013-03-11 08:10:00,
2013-03-11 03:11:00,42.7,39.1,29.65,West,264,0.0,11.0,87,0.01,,OVC012,0.01,VWS V14.01,2013-03-11 08:11:00,
2013-03-11 03:12:00,42.7,39.1,29.65,West,264,0.0,11.0,87,0.01,,OVC012,0.01,VWS V14.01,2013-03-11 08:12:00,
2013-03-11 03:13:00,42.7,39.1,29.65,WSW,254,0.0,11.0,87,0.01,,OVC012,0.01,VWS V14.01,2013-03-11 08:13:00,
2013-03-11 03:15:00,42.4,38.8,29.65,West,277,5.0,11.0,87,0.01,,OVC012,0.01,VWS V14.01,2013-03-11 08:15:00,
2013-03-11 03:17:00,42.2,38.6,29.65,West,278,11.0,11.0,87,0.01,,OVC012,0.01,VWS V14.01,2013-03-11 08:17:00,
2013-03-11 03:18:00,42.2,38.9,29.65,WNW,291,3.0,11.0,88,0.01,,OVC012,0.01,VWS V14.01,2013-03-11 08:18:00,
2013-03-11 03:20:00,42.0,38.7,29.65,West,274,4.0,11.0,88,0.01,,OVC012,0.01,VWS V14.01,2013-03-11 08:20:00,
2013-03-11 03:22:00,41.8,38.5,29.65,West,278,0.0,11.0,88,0.01,,OVC012,0.01,VWS V14.01,2013-03-11 08:22:00,
2013-03-11 03:23:00,41.8,38.5,29.65,West,278,0.0,11.0,88,0.01,,OVC012,0.01,VWS V14.01,2013-03-11 08:23:00,
2013-03-11 03:25:00,41.8,38.5,29.65,West,261,0.0,11.0,88,0.01,,OVC012,0.01,VWS V14.01,2013-03-11 08:25:00,
2013-03-11 03:27:00,41.7,38.4,29.65,West,273,0.0,11.0,88,0.01,,OVC012,0.01,VWS V14.01,2013-03-11 08:27:00,
2013-03-11 03:28:00,41.7,38.4,29.65,WSW,242,2.0,11.0,88,0.01,,OVC012,0.01,VWS V14.01,2013-03-11 08:28:00,
2013-03-11 03:30:00,41.5,38.2,29.64,WSW,246,4.0,5.0,88,0.01,,OVC012,0.01,VWS V14.01,2013-03-11 08:30:00,
2013-03-11 03:32:00,41.4,38.4,29.64,WSW,250,0.0,5.0,89,0.01,,OVC012,0.01,VWS V14.01,2013-03-11 08:32:00,
2013-03-11 03:33:00,41.4,38.4,29.64,WSW,250,0.0,5.0,89,0.01,,OVC012,0.01,VWS V14.01,2013-03-11 08:33:00,
2013-03-11 03:34:00,41.4,38.4,29.64,WSW,250,0.0,5.0,89,0.01,,OVC012,0.01,VWS V14.01,2013-03-11 08:34:00,
2013-03-11 03:35:00,41.2,38.2,29.64,West,264,2.0,5.0,89,0.01,,OVC012,0.01,VWS V14.01,2013-03-11 08:35:00,
2013-03-11 03:38:00,41.2,38.2,29.64,West,264,0.0,5.0,89,0.01,,OVC012,0.01,VWS V14.01,2013-03-11 08:38:00,
2013-03-11 03:40:00,41.2,38.2,29.64,West,259,0.0,6.0,89,0.01,,OVC012,0.01,VWS V14.01,2013-03-11 08:40:00,
2013-03-11 03:43:00,41.1,38.1,29.64,West,270,0.0,6.0,89,0.01,,OVC012,0.01,VWS V14.01,2013-03-11 08:43:00,
2013-03-11 03:44:00,41.1,38.1,29.63,West,279,1.0,6.0,89,0.01,,OVC012,0.01,VWS V14.01,2013-03-11 08:44:00,
2013-03-11 03:46:00,41.1,38.1,29.63,West,278,0.0,6.0,89,0.01,,OVC027,0.01,VWS V14.01,2013-03-11 08:46:00,
2013-03-11 03:48:00,41.1,38.1,29.63,WNW,289,0.0,6.0,89,0.01,,OVC027,0.01,VWS V14.01,2013-03-11 08:48:00,
2013-03-11 03:49:00,41.1,38.1,29.63,WNW,289,0.0,6.0,89,0.01,,OVC027,0.01,VWS V14.01,2013-03-11 08:49:00,
2013-03-11 03:51:00,41.1,38.1,29.63,WNW,289,0.0,6.0,89,0.01,,OVC027,0.01,VWS V14.01,2013-03-11 08:51:00,
2013-03-11 03:53:00,41.1,38.1,29.63,WNW,289,0.0,6.0,89,0.01,,OVC027,0.01,VWS V14.01,2013-03-11 08:53:00,
2013-03-11 03:54:00,41.1,38.1,29.63,WNW,289,0.0,6.0,89,0.01,,OVC027,0.01,VWS V14.01,2013-03-11 08:54:00,
2013-03-11 03:56:00,41.1,38.1,29.63,WNW,286,0.0,6.0,89,0.01,,OVC027,0.01,VWS V14.01,2013-03-11 08:56:00,
2013-03-11 03:58:00,41.1,38.1,29.63,WNW,286,0.0,6.0,89,0.01,,OVC027,0.01,VWS V14.01,2013-03-11 08:58:00,
2013-03-11 03:59:00,41.1,38.1,29.61,WNW,286,0.0,6.0,89,0.01,,OVC027,0.01,VWS V14.01,2013-03-11 08:59:00,
2013-03-11 04:00:00,39.7,35.9,29.64,West,271,3.0,10.0,86,0.00,,OVC041,0.01,VWS V14.01,2013-03-11 09:00:00,
2013-03-11 04:02:00,41.1,38.1,29.61,WNW,284,0.0,1.0,89,0.00,,OVC014,0.01,VWS V14.01,2013-03-11 09:02:00,
2013-03-11 04:04:00,41.0,38.0,29.61,West,268,2.0,9.0,89,0.00,,OVC014,0.01,VWS V14.01,2013-03-11 09:04:00,
2013-03-11 04:07:00,40.8,37.8,29.61,WSW,257,3.0,9.0,89,0.00,,OVC014,0.01,VWS V14.01,2013-03-11 09:07:00,
2013-03-11 04:09:00,40.8,37.8,29.61,West,273,0.0,9.0,89,0.00,,OVC014,0.01,VWS V14.01,2013-03-11 09:09:00,
2013-03-11 04:12:00,40.8,37.8,29.61,West,259,3.0,9.0,89,0.00,,OVC014,0.01,VWS V14.01,2013-03-11 09:12:00,
2013-03-11 04:14:00,40.7,37.7,29.64,West,270,4.0,9.0,89,0.00,,OVC014,0.01,VWS V14.01,2013-03-11 09:14:00,
2013-03-11 04:15:00,40.7,37.4,29.64,WSW,253,4.0,9.0,88,0.00,,OVC014,0.01,VWS V14.01,2013-03-11 09:15:00,
2013-03-11 04:17:00,40.7,37.4,29.64,West,259,0.0,9.0,88,0.00,,OVC014,0.01,VWS V14.01,2013-03-11 09:17:00,
2013-03-11 04:19:00,40.7,37.4,29.64,WSW,254,2.0,9.0,88,0.00,,OVC014,0.01,VWS V14.01,2013-03-11 09:19:00,
2013-03-11 04:20:00,40.7,37.4,29.64,West,260,0.0,9.0,88,0.00,,OVC014,0.01,VWS V14.01,2013-03-11 09:20:00,
2013-03-11 04:22:00,40.5,37.2,29.64,West,277,5.0,9.0,88,0.00,,OVC014,0.01,VWS V14.01,2013-03-11 09:22:00,
2013-03-11 04:24:00,40.5,37.2,29.64,WSW,254,0.0,9.0,88,0.00,,OVC014,0.01,VWS V14.01,2013-03-11 09:24:00,
2013-03-11 04:25:00,40.4,37.1,29.64,West,277,2.0,9.0,88,0.00,,OVC014,0.01,VWS V14.01,2013-03-11 09:25:00,
2013-03-11 04:27:00,40.4,36.8,29.64,WSW,256,0.0,9.0,87,0.00,,OVC014,0.01,VWS V14.01,2013-03-11 09:27:00,
2013-03-11 04:29:00,40.2,36.7,29.64,SW,223,6.0,10.0,87,0.00,,OVC014,0.01,VWS V14.01,2013-03-11 09:29:00,
2013-03-11 04:30:00,40.2,36.7,29.64,West,281,4.0,6.0,87,0.00,,OVC014,0.01,VWS V14.01,2013-03-11 09:30:00,
2013-03-11 04:32:00,40.1,36.5,29.64,West,279,4.0,7.0,87,0.00,,OVC014,0.01,VWS V14.01,2013-03-11 09:32:00,
2013-03-11 04:34:00,40.1,36.3,29.64,WSW,241,4.0,7.0,86,0.00,,OVC014,0.01,VWS V14.01,2013-03-11 09:34:00,
2013-03-11 04:35:00,40.1,36.3,29.64,WSW,245,0.0,7.0,86,0.00,,OVC014,0.01,VWS V14.01,2013-03-11 09:35:00,
2013-03-11 04:37:00,40.0,36.2,29.64,SW,219,1.0,9.0,86,0.00,,OVC014,0.01,VWS V14.01,2013-03-11 09:37:00,
2013-03-11 04:39:00,40.0,36.2,29.64,WSW,241,6.0,9.0,86,0.00,,OVC014,0.01,VWS V14.01,2013-03-11 09:39:00,
2013-03-11 04:40:00,40.0,36.2,29.64,WSW,255,10.0,10.0,86,0.00,,OVC014,0.01,VWS V14.01,2013-03-11 09:40:00,
2013-03-11 04:42:00,39.8,36.0,29.64,SW,227,3.0,10.0,86,0.00,,OVC014,0.01,VWS V14.01,2013-03-11 09:42:00,
2013-03-11 04:44:00,39.8,36.0,29.65,West,274,0.0,10.0,86,0.00,,OVC014,0.01,VWS V14.01,2013-03-11 09:44:00,
2013-03-11 04:45:00,39.8,36.0,29.65,WSW,246,2.0,10.0,86,0.00,,OVC017,0.01,VWS V14.01,2013-03-11 09:45:00,
2013-03-11 04:47:00,39.8,36.0,29.65,West,277,0.0,10.0,86,0.00,,OVC017,0.01,VWS V14.01,2013-03-11 09:47:00,
2013-03-11 04:50:00,39.8,36.0,29.65,WSW,254,1.0,10.0,86,0.00,,OVC017,0.01,VWS V14.01,2013-03-11 09:50:00,
2013-03-11 04:51:00,39.8,36.0,29.65,WSW,243,4.0,10.0,86,0.00,,OVC017,0.01,VWS V14.01,2013-03-11 09:51:00,
2013-03-11 04:52:00,39.8,36.0,29.65,WNW,289,0.0,10.0,86,0.00,,OVC017,0.01,VWS V14.01,2013-03-11 09:52:00,
2013-03-11 04:55:00,39.8,36.0,29.65,WNW,294,6.0,10.0,86,0.00,,OVC017,0.01,VWS V14.01,2013-03-11 09:55:00,
2013-03-11 04:56:00,39.8,36.0,29.65,West,269,4.0,10.0,86,0.00,,OVC017,0.01,VWS V14.01,2013-03-11 09:56:00,
2013-03-11 04:57:00,39.7,35.9,29.65,SW,229,3.0,10.0,86,0.00,,OVC017,0.01,VWS V14.01,2013-03-11 09:57:00,
2013-03-11 04:58:00,39.7,35.9,29.65,SW,221,4.0,10.0,86,0.00,,OVC017,0.01,VWS V14.01,2013-03-11 09:58:00,
2013-03-11 05:00:00,39.5,35.7,29.64,West,275,7.0,9.0,86,0.00,,OVC017,0.01,VWS V14.01,2013-03-11 10:00:00,
2013-03-11 05:01:00,39.5,35.7,29.64,SW,236,4.0,9.0,86,0.00,,OVC012,0.01,VWS V14.01,2013-03-11 10:01:00,
2013-03-11 05:02:00,39.5,36.0,29.64,WSW,245,6.0,9.0,87,0.00,,OVC012,0.01,VWS V14.01,2013-03-11 10:02:00,
2013-03-11 05:03:00,39.4,35.9,29.64,WSW,243,0.0,9.0,87,0.00,,OVC012,0.01,VWS V14.01,2013-03-11 10:03:00,
2013-03-11 05:05:00,39.4,35.9,29.64,WSW,257,5.0,9.0,87,0.00,,OVC012,0.01,VWS V14.01,2013-03-11 10:05:00,
2013-03-11 05:06:00,39.4,35.9,29.64,West,281,1.0,9.0,87,0.00,,OVC012,0.01,VWS V14.01,2013-03-11 10:06:00,
2013-03-11 05:07:00,39.4,35.9,29.64,West,267,0.0,9.0,87,0.00,,OVC012,0.01,VWS V14.01,2013-03-11 10:07:00,
2013-03-11 05:08:00,39.2,35.7,29.64,West,266,0.0,9.0,87,0.00,,OVC012,0.01,VWS V14.01,2013-03-11 10:08:00,
2013-03-11 05:10:00,39.2,36.0,29.64,West,276,1.0,9.0,88,0.00,,OVC012,0.01,VWS V14.01,2013-03-11 10:10:00,
2013-03-11 05:12:00,39.2,36.0,29.64,West,276,0.0,9.0,88,0.00,,OVC012,0.01,VWS V14.01,2013-03-11 10:12:00,
2013-03-11 05:13:00,39.2,36.0,29.64,West,279,1.0,9.0,88,0.00,,OVC012,0.01,VWS V14.01,2013-03-11 10:13:00,
2013-03-11 05:15:00,39.1,35.8,29.65,West,270,0.0,9.0,88,0.00,,OVC012,0.01,VWS V14.01,2013-03-11 10:15:00,
2013-03-11 05:17:00,39.0,35.8,29.65,West,281,1.0,9.0,88,0.00,,OVC012,0.01,VWS V14.01,2013-03-11 10:17:00,
2013-03-11 05:18:00,39.0,35.8,29.65,West,272,1.0,9.0,88,0.00,,OVC012,0.01,VWS V14.01,2013-03-11 10:18:00,
2013-03-11 05:21:00,38.7,35.5,29.65,WNW,299,4.0,9.0,88,0.00,,OVC012,0.01,VWS V14.01,2013-03-11 10:21:00,
2013-03-11 05:22:00,38.7,35.5,29.65,WNW,300,0.0,9.0,88,0.00,,OVC012,0.01,VWS V14.01,2013-03-11 10:22:00,
2013-03-11 05:23:00,38.7,35.5,29.65,WNW,294,6.0,9.0,88,0.00,,OVC012,0.01,VWS V14.01,2013-03-11 10:23:00,
2013-03-11 05:24:00,38.5,35.3,29.65,WNW,295,4.0,9.0,88,0.00,,OVC012,0.01,VWS V14.01,2013-03-11 10:24:00,
2013-03-11 05:26:00,38.2,35.0,29.65,West,277,6.0,11.0,88,0.00,,OVC012,0.01,VWS V14.01,2013-03-11 10:26:00,
2013-03-11 05:27:00,38.1,34.9,29.65,WSW,254,2.0,11.0,88,0.00,,OVC012,0.01,VWS V14.01,2013-03-11 10:27:00,
2013-03-11 05:28:00,38.1,34.9,29.65,WNW,282,3.0,11.0,88,0.00,,OVC012,0.01,VWS V14.01,2013-03-11 10:28:00,
2013-03-11 05:29:00,38.1,34.9,29.65,NW,319,4.0,11.0,88,0.00,,OVC012,0.01,VWS V14.01,2013-03-11 10:29:00,
2013-03-11 05:30:00,36.2,33.0,29.69,West,265,0.0,11.0,88,0.00,,OVC041,0.01,VWS V14.01,2013-03-11 10:30:00,
2013-03-11 05:32:00,37.9,35.0,29.66,West,259,3.0,11.0,89,0.00,,OVC012,0.01,VWS V14.01,2013-03-11 10:32:00,
2013-03-11 05:33:00,37.8,34.9,29.66,WNW,293,3.0,11.0,89,0.00,,OVC012,0.01,VWS V14.01,2013-03-11 10:33:00,
2013-03-11 05:34:00,37.8,34.9,29.66,West,263,0.0,11.0,89,0.00,,OVC012,0.01,VWS V14.01,2013-03-11 10:34:00,
2013-03-11 05:37:00,37.8,34.9,29.66,West,271,0.0,11.0,89,0.00,,OVC012,0.01,VWS V14.01,2013-03-11 10:37:00,
2013-03-11 05:38:00,37.7,34.8,29.66,WNW,299,0.0,11.0,89,0.00,,OVC012,0.01,VWS V14.01,2013-03-11 10:38:00,
2013-03-11 05:39:00,37.7,34.8,29.66,West,263,3.0,11.0,89,0.00,,OVC012,0.01,VWS V14.01,2013-03-11 10:39:00,
2013-03-11 05:42:00,37.5,34.6,29.66,West,270,11.0,11.0,89,0.00,,OVC012,0.01,VWS V14.01,2013-03-11 10:42:00,
2013-03-11 05:43:00,37.4,34.5,29.66,NW,307,5.0,11.0,89,0.00,,OVC012,0.01,VWS V14.01,2013-03-11 10:43:00,
2013-03-11 05:44:00,37.4,34.5,29.66,West,275,6.0,11.0,89,0.00,,OVC012,0.01,VWS V14.01,2013-03-11 10:44:00,
2013-03-11 05:47:00,37.4,34.5,29.66,WSW,255,2.0,11.0,89,0.00,,OVC006,0.01,VWS V14.01,2013-03-11 10:47:00,
2013-03-11 05:48:00,37.4,34.5,29.66,West,265,6.0,11.0,89,0.00,,OVC006,0.01,VWS V14.01,2013-03-11 10:48:00,
2013-03-11 05:49:00,37.4,34.5,29.66,WNW,294,3.0,11.0,89,0.00,,OVC006,0.01,VWS V14.01,2013-03-11 10:49:00,
2013-03-11 05:52:00,37.2,34.3,29.66,West,274,2.0,11.0,89,0.00,,OVC006,0.01,VWS V14.01,2013-03-11 10:52:00,
2013-03-11 05:53:00,37.2,34.3,29.66,West,278,5.0,11.0,89,0.00,,OVC006,0.01,VWS V14.01,2013-03-11 10:53:00,
2013-03-11 05:54:00,37.2,34.3,29.66,West,277,5.0,11.0,89,0.00,,OVC006,0.01,VWS V14.01,2013-03-11 10:54:00,
2013-03-11 05:57:00,37.1,34.2,29.66,WSW,253,0.0,11.0,89,0.00,,OVC006,0.01,VWS V14.01,2013-03-11 10:57:00,
2013-03-11 05:58:00,37.2,34.3,29.66,WSW,252,2.0,11.0,89,0.00,,OVC006,0.01,VWS V14.01,2013-03-11 10:58:00,
2013-03-11 05:59:00,37.1,34.2,29.67,WSW,237,5.0,11.0,89,0.00,,OVC006,0.01,VWS V14.01,2013-03-11 10:59:00,
2013-03-11 06:00:00,37.1,34.2,29.67,West,271,0.0,3.0,89,0.00,,OVC006,0.01,VWS V14.01,2013-03-11 11:00:00,
2013-03-11 06:02:00,37.1,34.2,29.67,West,267,0.0,5.0,89,0.00,,OVC008,0.01,VWS V14.01,2013-03-11 11:02:00,
2013-03-11 06:03:00,37.1,34.2,29.67,West,273,4.0,6.0,89,0.00,,OVC008,0.01,VWS V14.01,2013-03-11 11:03:00,
2013-03-11 06:04:00,37.1,34.2,29.67,WNW,294,5.0,6.0,89,0.00,,OVC008,0.01,VWS V14.01,2013-03-11 11:04:00,
2013-03-11 06:05:00,37.1,34.2,29.67,West,272,0.0,6.0,89,0.00,,OVC008,0.01,VWS V14.01,2013-03-11 11:05:00,
2013-03-11 06:07:00,36.9,34.0,29.67,West,265,3.0,9.0,89,0.00,,OVC008,0.01,VWS V14.01,2013-03-11 11:07:00,
2013-03-11 06:09:00,36.9,34.0,29.67,West,259,0.0,9.0,89,0.00,,OVC008,0.01,VWS V14.01,2013-03-11 11:09:00,
2013-03-11 06:10:00,36.9,33.7,29.67,West,275,5.0,9.0,88,0.00,,OVC008,0.01,VWS V14.01,2013-03-11 11:10:00,
2013-03-11 06:12:00,36.8,33.9,29.67,SW,221,3.0,9.0,89,0.00,,OVC008,0.01,VWS V14.01,2013-03-11 11:12:00,
2013-03-11 06:14:00,36.8,33.9,29.68,SW,225,4.0,9.0,89,0.00,,OVC008,0.01,VWS V14.01,2013-03-11 11:14:00,
2013-03-11 06:16:00,36.7,33.8,29.68,West,260,3.0,9.0,89,0.00,,OVC008,0.01,VWS V14.01,2013-03-11 11:16:00,
2013-03-11 06:17:00,36.7,33.8,29.68,WSW,240,5.0,11.0,89,0.00,,OVC008,0.01,VWS V14.01,2013-03-11 11:17:00,
2013-03-11 06:19:00,36.7,33.5,29.68,WNW,284,9.0,11.0,88,0.00,,OVC008,0.01,VWS V14.01,2013-03-11 11:19:00,
2013-03-11 06:21:00,36.5,33.3,29.68,West,273,6.0,11.0,88,0.00,,OVC008,0.01,VWS V14.01,2013-03-11 11:21:00,
2013-03-11 06:23:00,36.5,33.3,29.68,SSW,213,6.0,11.0,88,0.00,,OVC008,0.01,VWS V14.01,2013-03-11 11:23:00,
2013-03-11 06:24:00,36.4,33.2,29.68,West,270,9.0,11.0,88,0.00,,OVC008,0.01,VWS V14.01,2013-03-11 11:24:00,
2013-03-11 06:26:00,36.4,33.2,29.68,West,271,3.0,11.0,88,0.00,,OVC008,0.01,VWS V14.01,2013-03-11 11:26:00,
2013-03-11 06:28:00,36.4,33.2,29.68,WSW,238,4.0,11.0,88,0.00,,OVC008,0.01,VWS V14.01,2013-03-11 11:28:00,
2013-03-11 06:29:00,36.2,33.0,29.69,West,265,0.0,11.0,88,0.00,,OVC008,0.01,VWS V14.01,2013-03-11 11:29:00,
2013-03-11 06:30:00,36.2,33.0,29.69,West,265,0.0,0.0,88,0.00,,OVC008,0.01,VWS V14.01,2013-03-11 11:30:00,
2013-03-11 06:32:00,36.4,33.2,29.69,West,269,4.0,6.0,88,0.00,,OVC008,0.01,VWS V14.01,2013-03-11 11:32:00,
2013-03-11 06:33:00,36.4,33.2,29.69,West,265,2.0,10.0,88,0.00,,OVC008,0.01,VWS V14.01,2013-03-11 11:33:00,
2013-03-11 06:34:00,36.4,32.9,29.69,West,267,6.0,10.0,87,0.00,,OVC008,0.01,VWS V14.01,2013-03-11 11:34:00,
2013-03-11 06:35:00,36.4,32.9,29.69,West,259,2.0,10.0,87,0.00,,OVC008,0.01,VWS V14.01,2013-03-11 11:35:00,
2013-03-11 06:37:00,36.4,32.9,29.69,WSW,252,3.0,10.0,87,0.00,,OVC008,0.01,VWS V14.01,2013-03-11 11:37:00,
2013-03-11 06:39:00,36.4,32.9,29.69,West,277,6.0,10.0,87,0.00,,OVC008,0.01,VWS V14.01,2013-03-11 11:39:00,
2013-03-11 06:40:00,36.4,32.9,29.69,WNW,297,0.0,10.0,87,0.00,,OVC008,0.01,VWS V14.01,2013-03-11 11:40:00,
2013-03-11 06:43:00,36.2,32.7,29.69,WSW,242,3.0,11.0,87,0.00,,OVC008,0.01,VWS V14.01,2013-03-11 11:43:00,
2013-03-11 06:44:00,36.2,32.7,29.67,WSW,242,3.0,11.0,87,0.00,,OVC008,0.01,VWS V14.01,2013-03-11 11:44:00,
2013-03-11 06:45:00,36.2,32.7,29.67,West,273,4.0,11.0,87,0.00,,OVC006,0.01,VWS V14.01,2013-03-11 11:45:00,
2013-03-11 06:48:00,36.1,32.6,29.67,West,275,4.0,11.0,87,0.00,,OVC006,0.01,VWS V14.01,2013-03-11 11:48:00,
2013-03-11 06:49:00,36.1,32.6,29.67,WNW,285,5.0,11.0,87,0.00,,OVC006,0.01,VWS V14.01,2013-03-11 11:49:00,
2013-03-11 06:50:00,35.9,32.4,29.67,West,277,0.0,11.0,87,0.00,,OVC006,0.01,VWS V14.01,2013-03-11 11:50:00,
2013-03-11 06:51:00,35.9,32.4,29.67,WSW,239,3.0,11.0,87,0.00,,OVC006,0.01,VWS V14.01,2013-03-11 11:51:00,
2013-03-11 06:53:00,35.9,32.4,29.67,WSW,257,3.0,11.0,87,0.00,,OVC006,0.01,VWS V14.01,2013-03-11 11:53:00,
2013-03-11 06:54:00,35.8,32.3,29.67,WSW,248,5.0,11.0,87,0.00,,OVC006,0.01,VWS V14.01,2013-03-11 11:54:00,
2013-03-11 06:55:00,35.8,32.3,29.67,West,259,0.0,11.0,87,0.00,,OVC006,0.01,VWS V14.01,2013-03-11 11:55:00,
2013-03-11 06:56:00,35.8,32.3,29.67,West,259,2.0,11.0,87,0.00,,OVC006,0.01,VWS V14.01,2013-03-11 11:56:00,
2013-03-11 06:58:00,35.8,32.3,29.67,WNW,286,4.0,11.0,87,0.00,,OVC006,0.01,VWS V14.01,2013-03-11 11:58:00,
2013-03-11 06:59:00,35.7,32.2,29.67,West,269,2.0,11.0,87,0.00,,OVC006,0.01,VWS V14.01,2013-03-11 11:59:00,
2013-03-11 07:00:00,35.7,32.5,29.67,SW,235,3.0,3.0,88,0.00,,OVC006,0.01,VWS V14.01,2013-03-11 12:00:00,
2013-03-11 07:01:00,35.7,32.5,29.67,West,263,3.0,9.0,88,0.00,,OVC006,0.01,VWS V14.01,2013-03-11 12:01:00,
2013-03-11 07:03:00,35.5,32.0,29.67,WNW,293,9.0,9.0,87,0.00,,OVC006,0.01,VWS V14.01,2013-03-11 12:03:00,
2013-03-11 07:04:00,35.5,32.0,29.67,West,279,3.0,12.0,87,0.00,,OVC006,0.01,VWS V14.01,2013-03-11 12:04:00,
2013-03-11 07:05:00,35.5,32.0,29.67,West,271,3.0,12.0,87,0.00,,OVC006,0.01,VWS V14.01,2013-03-11 12:05:00,
2013-03-11 07:06:00,35.5,32.0,29.67,WSW,257,7.0,12.0,87,0.00,,OVC006,0.01,VWS V14.01,2013-03-11 12:06:00,
2013-03-11 07:08:00,35.5,32.0,29.67,West,281,0.0,12.0,87,0.00,,OVC006,0.01,VWS V14.01,2013-03-11 12:08:00,
2013-03-11 07:09:00,35.5,32.0,29.67,WSW,244,1.0,12.0,87,0.00,,OVC006,0.01,VWS V14.01,2013-03-11 12:09:00,
2013-03-11 07:11:00,35.5,32.0,29.67,West,274,1.0,12.0,87,0.00,,OVC006,0.01,VWS V14.01,2013-03-11 12:11:00,
2013-03-11 07:12:00,35.5,32.0,29.67,WSW,250,3.0,12.0,87,0.00,,OVC006,0.01,VWS V14.01,2013-03-11 12:12:00,
2013-03-11 07:13:00,35.4,31.9,29.67,West,267,3.0,12.0,87,0.00,,OVC006,0.01,VWS V14.01,2013-03-11 12:13:00,
2013-03-11 07:14:00,35.4,31.9,29.67,West,268,0.0,12.0,87,0.00,,OVC006,0.01,VWS V14.01,2013-03-11 12:14:00,
2013-03-11 07:17:00,35.4,31.9,29.67,West,267,0.0,12.0,87,0.00,,OVC006,0.01,VWS V14.01,2013-03-11 12:17:00,
2013-03-11 07:18:00,35.4,31.9,29.67,WNW,302,0.0,12.0,87,0.00,,OVC006,0.01,VWS V14.01,2013-03-11 12:18:00,
2013-03-11 07:19:00,35.4,31.9,29.67,WSW,251,3.0,12.0,87,0.00,,OVC006,0.01,VWS V14.01,2013-03-11 12:19:00,
2013-03-11 07:22:00,35.2,31.7,29.67,WSW,242,3.0,12.0,87,0.00,,OVC006,0.01,VWS V14.01,2013-03-11 12:22:00,
2013-03-11 07:23:00,35.2,31.7,29.67,WNW,298,4.0,12.0,87,0.00,,OVC006,0.01,VWS V14.01,2013-03-11 12:23:00,
2013-03-11 07:24:00,35.2,31.7,29.67,NW,310,5.0,12.0,87,0.00,,OVC006,0.01,VWS V14.01,2013-03-11 12:24:00,
2013-03-11 07:27:00,35.1,31.6,29.67,West,263,2.0,12.0,87,0.00,,OVC006,0.01,VWS V14.01,2013-03-11 12:27:00,
2013-03-11 07:28:00,35.1,31.6,29.67,West,271,6.0,12.0,87,0.00,,OVC006,0.01,VWS V14.01,2013-03-11 12:28:00,
2013-03-11 07:29:00,35.1,31.6,29.68,West,270,4.0,12.0,87,0.00,,OVC006,0.01,VWS V14.01,2013-03-11 12:29:00,
2013-03-11 07:30:00,35.1,31.6,29.68,West,280,5.0,5.0,87,0.00,,OVC006,0.01,VWS V14.01,2013-03-11 12:30:00,
2013-03-11 07:33:00,34.9,31.4,29.68,West,277,6.0,9.0,87,0.00,,OVC008,0.01,VWS V14.01,2013-03-11 12:33:00,
2013-03-11 07:34:00,34.9,31.4,29.68,WNW,282,3.0,9.0,87,0.00,,OVC008,0.01,VWS V14.01,2013-03-11 12:34:00,
2013-03-11 07:35:00,34.9,31.4,29.68,WSW,253,5.0,11.0,87,0.00,,OVC008,0.01,VWS V14.01,2013-03-11 12:35:00,
2013-03-11 07:39:00,34.9,31.1,29.68,WSW,248,3.0,11.0,86,0.00,,OVC008,0.01,VWS V14.01,2013-03-11 12:39:00,
2013-03-11 07:40:00,34.9,31.1,29.68,West,265,3.0,11.0,86,0.00,,OVC008,0.01,VWS V14.01,2013-03-11 12:40:00,
2013-03-11 07:44:00,34.9,31.1,29.69,WSW,244,4.0,11.0,86,0.00,,OVC008,0.01,VWS V14.01,2013-03-11 12:44:00,
2013-03-11 07:45:00,34.9,31.1,29.69,West,281,3.0,11.0,86,0.00,,OVC008,0.01,VWS V14.01,2013-03-11 12:45:00,
2013-03-11 07:49:00,34.9,30.9,29.69,West,277,0.0,11.0,85,0.00,,OVC008,0.01,VWS V14.01,2013-03-11 12:49:00,
2013-03-11 07:50:00,34.9,30.9,29.69,West,265,2.0,11.0,85,0.00,,OVC008,0.01,VWS V14.01,2013-03-11 12:50:00,
2013-03-11 07:54:00,34.9,30.6,29.69,WNW,284,4.0,11.0,84,0.00,,OVC008,0.01,VWS V14.01,2013-03-11 12:54:00,
2013-03-11 07:55:00,34.9,30.6,29.69,West,261,2.0,11.0,84,0.00,,OVC008,0.01,VWS V14.01,2013-03-11 12:55:00,
2013-03-11 07:59:00,34.9,30.6,29.69,West,264,2.0,11.0,84,0.00,,OVC008,0.01,VWS V14.01,2013-03-11 12:59:00,
2013-03-11 08:00:00,34.9,30.6,29.69,West,266,0.0,0.0,84,0.00,,OVC008,0.01,VWS V14.01,2013-03-11 13:00:00,
2013-03-11 08:04:00,34.9,30.6,29.69,WNW,287,0.0,5.0,84,0.00,,OVC012,0.01,VWS V14.01,2013-03-11 13:04:00,
2013-03-11 08:05:00,34.9,30.6,29.69,WNW,300,0.0,5.0,84,0.00,,OVC012,0.01,VWS V14.01,2013-03-11 13:05:00,
2013-03-11 08:09:00,34.9,30.6,29.69,West,280,0.0,5.0,84,0.00,,OVC012,0.01,VWS V14.01,2013-03-11 13:09:00,
2013-03-11 08:10:00,34.9,30.6,29.69,West,280,0.0,5.0,84,0.00,,OVC012,0.01,VWS V14.01,2013-03-11 13:10:00,
2013-03-11 08:15:00,34.8,30.5,29.68,West,279,1.0,7.0,84,0.00,,OVC012,0.01,VWS V14.01,2013-03-11 13:15:00,
2013-03-11 08:20:00,34.6,30.3,29.68,WSW,256,3.0,13.0,84,0.00,,OVC012,0.01,VWS V14.01,2013-03-11 13:20:00,
2013-03-11 08:25:00,34.6,30.3,29.68,NNW,333,6.0,13.0,84,0.00,,OVC012,0.01,VWS V14.01,2013-03-11 13:25:00,
2013-03-11 08:30:00,34.5,29.9,29.69,SW,221,5.0,5.0,83,0.00,,OVC012,0.01,VWS V14.01,2013-03-11 13:30:00,
2013-03-11 08:32:00,34.5,29.9,29.69,WSW,240,3.0,5.0,83,0.00,,OVC012,0.01,VWS V14.01,2013-03-11 13:32:00,
2013-03-11 08:35:00,34.5,29.9,29.69,WNW,289,9.0,14.0,83,0.00,,OVC012,0.01,VWS V14.01,2013-03-11 13:35:00,
2013-03-11 08:37:00,34.3,29.7,29.69,West,280,4.0,14.0,83,0.00,,OVC012,0.01,VWS V14.01,2013-03-11 13:37:00,
2013-03-11 08:40:00,34.3,29.7,29.69,West,276,5.0,14.0,83,0.00,,OVC012,0.01,VWS V14.01,2013-03-11 13:40:00,
2013-03-11 08:42:00,34.3,29.7,29.69,WSW,253,6.0,14.0,83,0.00,,OVC012,0.01,VWS V14.01,2013-03-11 13:42:00,
2013-03-11 08:45:00,34.3,29.7,29.70,WSW,257,6.0,14.0,83,0.00,,OVC012,0.01,VWS V14.01,2013-03-11 13:45:00,
2013-03-11 08:47:00,34.3,29.7,29.70,WSW,257,3.0,14.0,83,0.00,,OVC012,0.01,VWS V14.01,2013-03-11 13:47:00,
2013-03-11 08:50:00,34.2,29.6,29.70,West,259,4.0,14.0,83,0.00,,OVC012,0.01,VWS V14.01,2013-03-11 13:50:00,
2013-03-11 08:52:00,34.3,29.7,29.70,SW,221,3.0,14.0,83,0.00,,OVC012,0.01,VWS V14.01,2013-03-11 13:52:00,
2013-03-11 08:55:00,34.3,29.7,29.70,WSW,252,3.0,14.0,83,0.00,,OVC012,0.01,VWS V14.01,2013-03-11 13:55:00,
2013-03-11 08:56:00,34.3,29.7,29.70,WSW,253,6.0,14.0,83,0.00,,OVC012,0.01,VWS V14.01,2013-03-11 13:56:00,
2013-03-11 08:57:00,34.3,29.7,29.70,WSW,243,4.0,14.0,83,0.00,,OVC012,0.01,VWS V14.01,2013-03-11 13:57:00,
2013-03-11 09:00:00,34.3,29.7,29.70,West,268,3.0,3.0,83,0.00,,OVC012,0.01,VWS V14.01,2013-03-11 14:00:00,
2013-03-11 09:01:00,34.3,29.7,29.70,West,281,0.0,4.0,83,0.00,,OVC012,0.01,VWS V14.01,2013-03-11 14:01:00,
2013-03-11 09:02:00,34.3,29.7,29.70,WSW,257,4.0,5.0,83,0.00,,OVC012,0.01,VWS V14.01,2013-03-11 14:02:00,
2013-03-11 09:05:00,34.2,29.6,29.70,WSW,246,7.0,9.0,83,0.00,,OVC012,0.01,VWS V14.01,2013-03-11 14:05:00,
2013-03-11 09:06:00,34.2,29.6,29.70,West,267,3.0,9.0,83,0.00,,OVC012,0.01,VWS V14.01,2013-03-11 14:06:00,
2013-03-11 09:07:00,34.2,29.6,29.70,West,261,1.0,9.0,83,0.00,,OVC012,0.01,VWS V14.01,2013-03-11 14:07:00,
2013-03-11 09:08:00,34.2,29.6,29.70,WNW,287,4.0,9.0,83,0.00,,OVC012,0.01,VWS V14.01,2013-03-11 14:08:00,
2013-03-11 09:10:00,34.2,29.9,29.70,WSW,251,3.0,9.0,84,0.00,,OVC012,0.01,VWS V14.01,2013-03-11 14:10:00,
2013-03-11 09:11:00,34.2,29.6,29.70,SW,223,6.0,9.0,83,0.00,,OVC012,0.01,VWS V14.01,2013-03-11 14:11:00,
2013-03-11 09:12:00,34.0,29.4,29.70,WSW,242,3.0,9.0,83,0.00,,OVC012,0.01,VWS V14.01,2013-03-11 14:12:00,
2013-03-11 09:13:00,34.0,29.7,29.70,WSW,243,0.0,9.0,84,0.00,,OVC012,0.01,VWS V14.01,2013-03-11 14:13:00,
2013-03-11 09:15:00,34.0,29.7,29.70,West,267,0.0,9.0,84,0.00,,OVC012,0.01,VWS V14.01,2013-03-11 14:15:00,
2013-03-11 09:16:00,34.0,29.7,29.70,West,261,2.0,9.0,84,0.00,,OVC012,0.01,VWS V14.01,2013-03-11 14:16:00,
2013-03-11 09:17:00,34.0,29.7,29.70,SW,220,5.0,9.0,84,0.00,,OVC012,0.01,VWS V14.01,2013-03-11 14:17:00,
2013-03-11 09:18:00,34.0,29.7,29.70,WNW,294,5.0,9.0,84,0.00,,OVC012,0.01,VWS V14.01,2013-03-11 14:18:00,
2013-03-11 09:20:00,34.0,29.7,29.70,WSW,249,3.0,10.0,84,0.00,,OVC012,0.01,VWS V14.01,2013-03-11 14:20:00,
2013-03-11 09:22:00,34.0,29.7,29.70,West,268,3.0,10.0,84,0.00,,OVC012,0.01,VWS V14.01,2013-03-11 14:22:00,
2013-03-11 09:23:00,34.0,29.7,29.70,West,269,2.0,10.0,84,0.00,,OVC012,0.01,VWS V14.01,2013-03-11 14:23:00,
2013-03-11 09:25:00,34.0,29.7,29.70,West,277,0.0,10.0,84,0.00,,OVC012,0.01,VWS V14.01,2013-03-11 14:25:00,
2013-03-11 09:27:00,34.0,29.7,29.70,West,269,2.0,10.0,84,0.00,,OVC012,0.01,VWS V14.01,2013-03-11 14:27:00,
2013-03-11 09:28:00,34.0,29.7,29.70,SW,236,3.0,10.0,84,0.00,,OVC012,0.01,VWS V14.01,2013-03-11 14:28:00,
2013-03-11 09:30:00,33.3,29.6,29.71,SW,231,3.0,11.0,86,0.00,,OVC041,0.01,VWS V14.01,2013-03-11 14:30:00,
2013-03-11 09:31:00,33.9,29.6,29.70,SW,227,3.0,5.0,84,0.00,,OVC012,0.01,VWS V14.01,2013-03-11 14:31:00,
2013-03-11 09:32:00,33.9,29.6,29.70,West,259,2.0,6.0,84,0.00,,OVC012,0.01,VWS V14.01,2013-03-11 14:32:00,
2013-03-11 09:33:00,33.9,29.6,29.70,WSW,240,2.0,6.0,84,0.00,,OVC012,0.01,VWS V14.01,2013-03-11 14:33:00,
2013-03-11 09:34:00,33.9,29.6,29.70,WSW,242,2.0,6.0,84,0.00,,OVC012,0.01,VWS V14.01,2013-03-11 14:34:00,
2013-03-11 09:36:00,33.7,29.4,29.70,West,277,4.0,6.0,84,0.00,,OVC012,0.01,VWS V14.01,2013-03-11 14:36:00,
2013-03-11 09:38:00,33.7,29.4,29.70,West,275,0.0,6.0,84,0.00,,OVC012,0.01,VWS V14.01,2013-03-11 14:38:00,
2013-03-11 09:39:00,33.7,29.7,29.70,West,268,0.0,6.0,85,0.00,,OVC012,0.01,VWS V14.01,2013-03-11 14:39:00,
2013-03-11 09:42:00,33.7,29.7,29.70,SW,227,0.0,6.0,85,0.00,,OVC012,0.01,VWS V14.01,2013-03-11 14:42:00,
2013-03-11 09:43:00,33.7,29.7,29.70,SW,228,0.0,6.0,85,0.00,,OVC012,0.01,VWS V14.01,2013-03-11 14:43:00,
2013-03-11 09:44:00,33.7,29.7,29.70,SW,227,0.0,6.0,85,0.00,,OVC012,0.01,VWS V14.01,2013-03-11 14:44:00,
2013-03-11 09:55:00,33.6,29.6,29.70,SW,232,7.0,9.0,85,0.00,,,0.01,VWS V14.01,2013-03-11 14:55:00,
2013-03-11 10:00:00,33.4,29.7,29.71,SW,229,0.0,0.0,86,0.00,,,0.01,VWS V14.01,2013-03-11 15:00:00,
2013-03-11 10:05:00,33.4,29.7,29.71,West,271,3.0,11.0,86,0.00,,,0.01,VWS V14.01,2013-03-11 15:05:00,
2013-03-11 10:10:00,33.3,29.6,29.71,WSW,240,5.0,11.0,86,0.00,,,0.01,VWS V14.01,2013-03-11 15:10:00,
2013-03-11 10:11:00,33.3,29.6,29.71,West,279,6.0,11.0,86,0.00,,,0.01,VWS V14.01,2013-03-11 15:11:00,
2013-03-11 10:15:00,33.3,29.6,29.71,NW,305,0.0,11.0,86,0.00,,,0.01,VWS V14.01,2013-03-11 15:15:00,
2013-03-11 10:17:00,33.3,29.6,29.71,SW,236,4.0,11.0,86,0.00,,OVC012,0.01,VWS V14.01,2013-03-11 15:17:00,
2013-03-11 10:20:00,33.3,29.9,29.71,WSW,241,0.0,11.0,87,0.00,,OVC012,0.01,VWS V14.01,2013-03-11 15:20:00,
2013-03-11 10:22:00,33.3,29.9,29.71,West,262,0.0,11.0,87,0.00,,OVC012,0.01,VWS V14.01,2013-03-11 15:22:00,
2013-03-11 10:25:00,33.3,29.9,29.71,SSW,207,3.0,11.0,87,0.00,,OVC012,0.01,VWS V14.01,2013-03-11 15:25:00,
2013-03-11 10:26:00,33.3,29.6,29.71,West,262,1.0,11.0,86,0.00,,OVC012,0.01,VWS V14.01,2013-03-11 15:26:00,
2013-03-11 10:27:00,33.3,29.6,29.71,West,265,4.0,11.0,86,0.00,,OVC012,0.01,VWS V14.01,2013-03-11 15:27:00,
2013-03-11 10:30:00,33.3,29.6,29.71,SW,229,4.0,5.0,86,0.00,,OVC012,0.01,VWS V14.01,2013-03-11 15:30:00,
2013-03-11 10:31:00,33.3,29.6,29.71,WSW,254,7.0,7.0,86,0.00,,,0.01,VWS V14.01,2013-03-11 15:31:00,
2013-03-11 10:32:00,33.3,29.6,29.71,WSW,250,5.0,8.0,86,0.00,,,0.01,VWS V14.01,2013-03-11 15:32:00,
2013-03-11 10:33:00,33.3,29.6,29.71,West,263,3.0,8.0,86,0.00,,,0.01,VWS V14.01,2013-03-11 15:33:00,
2013-03-11 10:35:00,33.3,29.6,29.71,West,271,0.0,8.0,86,0.00,,,0.01,VWS V14.01,2013-03-11 15:35:00,
2013-03-11 10:36:00,33.4,29.7,29.71,SW,234,0.0,8.0,86,0.00,,,0.01,VWS V14.01,2013-03-11 15:36:00,
2013-03-11 10:37:00,33.4,29.7,29.71,SW,234,0.0,8.0,86,0.00,,,0.01,VWS V14.01,2013-03-11 15:37:00,
2013-03-11 10:38:00,33.4,29.7,29.71,SW,236,0.0,8.0,86,0.00,,,0.01,VWS V14.01,2013-03-11 15:38:00,
2013-03-11 10:40:00,33.4,29.7,29.71,SW,221,2.0,8.0,86,0.00,,,0.01,VWS V14.01,2013-03-11 15:40:00,
2013-03-11 10:42:00,33.4,29.7,29.71,WSW,248,4.0,8.0,86,0.00,,,0.01,VWS V14.01,2013-03-11 15:42:00,
2013-03-11 10:44:00,33.4,29.7,29.71,West,259,6.0,8.0,86,0.00,,,0.01,VWS V14.01,2013-03-11 15:44:00,
2013-03-11 10:45:00,33.3,29.3,29.71,NW,323,8.0,8.0,85,0.00,,,0.01,VWS V14.01,2013-03-11 15:45:00,
2013-03-11 10:47:00,33.3,29.3,29.71,West,270,0.0,8.0,85,0.00,,,0.01,VWS V14.01,2013-03-11 15:47:00,
2013-03-11 10:48:00,33.3,29.3,29.71,WSW,240,3.0,8.0,85,0.00,,,0.01,VWS V14.01,2013-03-11 15:48:00,
2013-03-11 10:49:00,33.3,29.3,29.71,SW,234,5.0,13.0,85,0.00,,,0.01,VWS V14.01,2013-03-11 15:49:00,
2013-03-11 10:51:00,33.3,29.3,29.71,WSW,237,3.0,13.0,85,0.00,,,0.01,VWS V14.01,2013-03-11 15:51:00,
2013-03-11 10:52:00,33.3,29.3,29.71,West,259,1.0,13.0,85,0.00,,,0.01,VWS V14.01,2013-03-11 15:52:00,
2013-03-11 10:53:00,33.3,29.3,29.71,West,262,3.0,13.0,85,0.00,,,0.01,VWS V14.01,2013-03-11 15:53:00,
2013-03-11 10:54:00,33.4,29.1,29.71,West,277,7.0,13.0,84,0.00,,,0.01,VWS V14.01,2013-03-11 15:54:00,
2013-03-11 10:56:00,33.4,29.1,29.71,West,264,4.0,13.0,84,0.00,,,0.01,VWS V14.01,2013-03-11 15:56:00,
2013-03-11 10:57:00,33.4,29.1,29.71,WSW,252,11.0,13.0,84,0.00,,,0.01,VWS V14.01,2013-03-11 15:57:00,
2013-03-11 10:58:00,33.4,29.1,29.71,WSW,244,5.0,13.0,84,0.00,,,0.01,VWS V14.01,2013-03-11 15:58:00,
2013-03-11 11:00:00,33.4,29.1,29.71,West,263,5.0,5.0,84,0.00,,,0.01,VWS V14.01,2013-03-11 16:00:00,
2013-03-11 11:02:00,33.4,29.1,29.71,SW,223,4.0,7.0,84,0.00,,,0.01,VWS V14.01,2013-03-11 16:02:00,
2013-03-11 11:03:00,33.4,29.1,29.71,WSW,237,6.0,8.0,84,0.00,,,0.01,VWS V14.01,2013-03-11 16:03:00,
2013-03-11 11:04:00,33.4,29.1,29.71,SSW,213,5.0,8.0,84,0.00,,,0.01,VWS V14.01,2013-03-11 16:04:00,
2013-03-11 11:05:00,33.4,29.1,29.71,SW,227,5.0,8.0,84,0.00,,,0.01,VWS V14.01,2013-03-11 16:05:00,
2013-03-11 11:07:00,33.6,29.3,29.71,WSW,238,6.0,8.0,84,0.00,,,0.01,VWS V14.01,2013-03-11 16:07:00,
2013-03-11 11:08:00,33.6,29.3,29.71,SW,227,1.0,8.0,84,0.00,,,0.01,VWS V14.01,2013-03-11 16:08:00,
2013-03-11 11:09:00,33.6,29.3,29.71,WSW,248,3.0,8.0,84,0.00,,,0.01,VWS V14.01,2013-03-11 16:09:00,
2013-03-11 11:10:00,33.6,29.0,29.71,WSW,240,3.0,9.0,83,0.00,,,0.01,VWS V14.01,2013-03-11 16:10:00,
2013-03-11 11:12:00,33.7,29.1,29.71,West,277,5.0,9.0,83,0.00,,,0.01,VWS V14.01,2013-03-11 16:12:00,
2013-03-11 11:13:00,33.7,29.1,29.71,WSW,245,3.0,9.0,83,0.00,,,0.01,VWS V14.01,2013-03-11 16:13:00,
2013-03-11 11:14:00,33.7,29.1,29.71,WSW,240,5.0,10.0,83,0.00,,,0.01,VWS V14.01,2013-03-11 16:14:00,
2013-03-11 11:15:00,33.7,29.1,29.71,WSW,242,4.0,10.0,83,0.00,,,0.01,VWS V14.01,2013-03-11 16:15:00,
2013-03-11 11:18:00,33.7,28.8,29.71,West,267,3.0,10.0,82,0.00,,,0.01,VWS V14.01,2013-03-11 16:18:00,
2013-03-11 11:19:00,33.7,28.8,29.71,SW,235,2.0,10.0,82,0.00,,,0.01,VWS V14.01,2013-03-11 16:19:00,
2013-03-11 11:21:00,33.7,28.8,29.71,SW,235,5.0,10.0,82,0.00,,,0.01,VWS V14.01,2013-03-11 16:21:00,
2013-03-11 11:23:00,33.7,28.8,29.71,SW,225,6.0,10.0,82,0.00,,,0.01,VWS V14.01,2013-03-11 16:23:00,
2013-03-11 11:24:00,33.7,28.8,29.71,WSW,254,5.0,12.0,82,0.00,,,0.01,VWS V14.01,2013-03-11 16:24:00,
2013-03-11 11:26:00,33.7,28.8,29.71,WSW,248,4.0,12.0,82,0.00,,,0.01,VWS V14.01,2013-03-11 16:26:00,
2013-03-11 11:28:00,33.7,28.8,29.71,WSW,242,4.0,12.0,82,0.00,,,0.01,VWS V14.01,2013-03-11 16:28:00,
2013-03-11 11:29:00,33.7,28.8,29.71,West,276,0.0,12.0,82,0.00,,,0.01,VWS V14.01,2013-03-11 16:29:00,
2013-03-11 11:30:00,33.7,27.9,29.71,WNW,293,14.0,17.0,79,0.00,,OVC041,0.01,VWS V14.01,2013-03-11 16:30:00,
2013-03-11 11:31:00,33.7,28.8,29.71,WNW,283,7.0,14.0,82,0.00,,,0.01,VWS V14.01,2013-03-11 16:31:00,
2013-03-11 11:33:00,33.6,28.7,29.71,West,263,5.0,14.0,82,0.00,,,0.01,VWS V14.01,2013-03-11 16:33:00,
2013-03-11 11:34:00,33.6,28.7,29.71,WSW,250,3.0,14.0,82,0.00,,,0.01,VWS V14.01,2013-03-11 16:34:00,
2013-03-11 11:36:00,33.6,28.7,29.71,WNW,290,6.0,15.0,82,0.00,,,0.01,VWS V14.01,2013-03-11 16:36:00,
2013-03-11 11:38:00,33.6,28.7,29.71,WSW,244,6.0,15.0,82,0.00,,,0.01,VWS V14.01,2013-03-11 16:38:00,
2013-03-11 11:39:00,33.6,28.7,29.71,West,278,2.0,15.0,82,0.00,,,0.01,VWS V14.01,2013-03-11 16:39:00,
2013-03-11 11:42:00,33.6,28.7,29.71,SW,235,4.0,15.0,82,0.00,,,0.01,VWS V14.01,2013-03-11 16:42:00,
2013-03-11 11:44:00,33.6,28.7,29.71,SW,236,4.0,15.0,82,0.00,,,0.01,VWS V14.01,2013-03-11 16:44:00,
2013-03-11 11:45:00,33.7,28.8,29.71,WNW,295,8.0,15.0,82,0.00,,,0.01,VWS V14.01,2013-03-11 16:45:00,
2013-03-11 11:47:00,33.7,28.5,29.71,WSW,253,2.0,15.0,81,0.00,,OVC018,0.01,VWS V14.01,2013-03-11 16:47:00,
2013-03-11 11:49:00,33.9,28.7,29.71,WSW,244,4.0,15.0,81,0.00,,OVC018,0.01,VWS V14.01,2013-03-11 16:49:00,
2013-03-11 11:50:00,33.9,28.7,29.71,West,260,5.0,15.0,81,0.00,,OVC018,0.01,VWS V14.01,2013-03-11 16:50:00,
2013-03-11 11:52:00,33.9,28.7,29.71,WSW,240,4.0,15.0,81,0.00,,OVC018,0.01,VWS V14.01,2013-03-11 16:52:00,
2013-03-11 11:54:00,33.9,28.7,29.71,WSW,238,0.0,15.0,81,0.00,,OVC018,0.01,VWS V14.01,2013-03-11 16:54:00,
2013-03-11 11:55:00,34.0,28.8,29.71,West,262,9.0,15.0,81,0.00,,OVC018,0.01,VWS V14.01,2013-03-11 16:55:00,
2013-03-11 11:57:00,34.0,28.8,29.71,SW,229,9.0,15.0,81,0.00,,OVC018,0.01,VWS V14.01,2013-03-11 16:57:00,
2013-03-11 11:59:00,34.0,28.8,29.71,SW,229,4.0,15.0,81,0.00,,OVC018,0.01,VWS V14.01,2013-03-11 16:59:00,
2013-03-11 12:00:00,34.0,28.8,29.71,WSW,248,6.0,15.0,81,0.00,,OVC018,0.01,VWS V14.01,2013-03-11 17:00:00,
2013-03-11 12:02:00,34.0,28.8,29.71,SW,221,4.0,6.0,81,0.00,,OVC011,0.01,VWS V14.01,2013-03-11 17:02:00,
2013-03-11 12:04:00,34.0,28.8,29.71,SW,234,5.0,9.0,81,0.00,,OVC011,0.01,VWS V14.01,2013-03-11 17:04:00,
2013-03-11 12:05:00,34.0,28.8,29.71,WSW,239,5.0,10.0,81,0.00,,OVC011,0.01,VWS V14.01,2013-03-11 17:05:00,
2013-03-11 12:08:00,33.7,28.5,29.71,WSW,255,13.0,13.0,81,0.00,,OVC011,0.01,VWS V14.01,2013-03-11 17:08:00,
2013-03-11 12:10:00,33.7,28.5,29.71,WSW,250,5.0,17.0,81,0.00,,OVC011,0.01,VWS V14.01,2013-03-11 17:10:00,
2013-03-11 12:13:00,33.6,28.4,29.71,SW,236,6.0,17.0,81,0.00,,OVC011,0.01,VWS V14.01,2013-03-11 17:13:00,
2013-03-11 12:15:00,33.6,28.4,29.71,WSW,240,5.0,17.0,81,0.00,,OVC011,0.01,VWS V14.01,2013-03-11 17:15:00,
2013-03-11 12:16:00,33.7,28.5,29.71,SW,231,2.0,17.0,81,0.00,,OVC011,0.01,VWS V14.01,2013-03-11 17:16:00,
2013-03-11 12:18:00,33.7,28.5,29.71,SW,232,5.0,17.0,81,0.00,,OVC011,0.01,VWS V14.01,2013-03-11 17:18:00,
2013-03-11 12:20:00,33.7,28.5,29.71,WSW,253,7.0,17.0,81,0.00,,OVC011,0.01,VWS V14.01,2013-03-11 17:20:00,
2013-03-11 12:21:00,33.7,28.2,29.71,West,265,6.0,17.0,80,0.00,,OVC011,0.01,VWS V14.01,2013-03-11 17:21:00,
2013-03-11 12:23:00,33.7,28.2,29.71,SW,223,5.0,17.0,80,0.00,,OVC011,0.01,VWS V14.01,2013-03-11 17:23:00,
2013-03-11 12:25:00,33.7,28.2,29.71,WSW,250,5.0,17.0,80,0.00,,OVC011,0.01,VWS V14.01,2013-03-11 17:25:00,
2013-03-11 12:26:00,33.7,28.2,29.71,West,274,3.0,17.0,80,0.00,,OVC011,0.01,VWS V14.01,2013-03-11 17:26:00,
2013-03-11 12:29:00,33.7,28.2,29.71,WNW,282,9.0,17.0,80,0.00,,OVC011,0.01,VWS V14.01,2013-03-11 17:29:00,
2013-03-11 12:30:00,33.7,27.9,29.71,West,279,9.0,16.0,79,0.00,,OVC011,0.01,VWS V14.01,2013-03-11 17:30:00,
2013-03-11 12:32:00,33.6,27.8,29.71,WNW,291,9.0,21.0,79,0.00,,OVC011,0.01,VWS V14.01,2013-03-11 17:32:00,
2013-03-11 12:34:00,33.6,28.1,29.71,WNW,282,9.0,21.0,80,0.00,,OVC011,0.01,VWS V14.01,2013-03-11 17:34:00,
2013-03-11 12:35:00,33.6,28.1,29.71,West,281,10.0,21.0,80,0.00,,OVC011,0.01,VWS V14.01,2013-03-11 17:35:00,
2013-03-11 12:37:00,33.6,28.1,29.71,NW,315,4.0,21.0,80,0.00,,OVC011,0.01,VWS V14.01,2013-03-11 17:37:00,
2013-03-11 12:39:00,33.6,28.4,29.71,West,274,2.0,21.0,81,0.00,,OVC011,0.01,VWS V14.01,2013-03-11 17:39:00,
2013-03-11 12:40:00,33.7,28.5,29.71,WNW,301,1.0,21.0,81,0.00,,OVC011,0.01,VWS V14.01,2013-03-11 17:40:00,
2013-03-11 12:41:00,33.7,28.5,29.71,WSW,252,1.0,21.0,81,0.00,,OVC011,0.01,VWS V14.01,2013-03-11 17:41:00,
2013-03-11 12:42:00,33.7,28.5,29.71,WSW,251,4.0,21.0,81,0.00,,OVC011,0.01,VWS V14.01,2013-03-11 17:42:00,
2013-03-11 12:44:00,33.7,28.5,29.71,SW,229,5.0,21.0,81,0.00,,OVC011,0.01,VWS V14.01,2013-03-11 17:44:00,
2013-03-11 12:45:00,33.7,28.5,29.71,WSW,245,4.0,21.0,81,0.00,,OVC013,0.01,VWS V14.01,2013-03-11 17:45:00,
2013-03-11 12:46:00,33.6,28.4,29.71,West,279,1.0,21.0,81,0.00,,OVC013,0.01,VWS V14.01,2013-03-11 17:46:00,
2013-03-11 12:48:00,33.6,28.4,29.71,WSW,257,4.0,21.0,81,0.00,,OVC013,0.01,VWS V14.01,2013-03-11 17:48:00,
2013-03-11 12:49:00,33.6,28.4,29.71,WNW,282,5.0,21.0,81,0.00,,OVC013,0.01,VWS V14.01,2013-03-11 17:49:00,
2013-03-11 12:50:00,33.6,28.4,29.71,West,269,5.0,21.0,81,0.00,,OVC013,0.01,VWS V14.01,2013-03-11 17:50:00,
2013-03-11 12:53:00,33.4,28.2,29.71,West,269,3.0,21.0,81,0.00,,OVC013,0.01,VWS V14.01,2013-03-11 17:53:00,
2013-03-11 12:54:00,33.6,28.4,29.71,WSW,254,2.0,21.0,81,0.00,,OVC013,0.01,VWS V14.01,2013-03-11 17:54:00,
2013-03-11 12:56:00,33.6,28.4,29.71,SW,227,5.0,21.0,81,0.00,,OVC013,0.01,VWS V14.01,2013-03-11 17:56:00,
2013-03-11 12:58:00,33.6,28.4,29.71,WSW,253,8.0,21.0,81,0.00,,OVC013,0.01,VWS V14.01,2013-03-11 17:58:00,
2013-03-11 12:59:00,33.4,28.2,29.71,WSW,244,3.0,21.0,81,0.00,,OVC013,0.01,VWS V14.01,2013-03-11 17:59:00,
2013-03-11 13:00:00,33.3,27.8,29.73,West,267,6.0,14.0,80,0.00,,OVC041,0.01,VWS V14.01,2013-03-11 18:00:00,
2013-03-11 13:01:00,33.4,28.2,29.71,West,265,4.0,7.0,81,0.00,,OVC013,0.01,VWS V14.01,2013-03-11 18:01:00,
2013-03-11 13:03:00,33.4,28.2,29.71,West,261,4.0,14.0,81,0.00,,OVC013,0.01,VWS V14.01,2013-03-11 18:03:00,
2013-03-11 13:05:00,33.4,28.2,29.71,West,273,5.0,18.0,81,0.00,,OVC013,0.01,VWS V14.01,2013-03-11 18:05:00,
2013-03-11 13:06:00,33.3,27.8,29.71,WSW,246,12.0,18.0,80,0.00,,OVC013,0.01,VWS V14.01,2013-03-11 18:06:00,
2013-03-11 13:08:00,33.3,27.8,29.71,WNW,302,4.0,18.0,80,0.00,,OVC013,0.01,VWS V14.01,2013-03-11 18:08:00,
2013-03-11 13:10:00,33.4,27.9,29.71,West,271,7.0,18.0,80,0.00,,OVC013,0.01,VWS V14.01,2013-03-11 18:10:00,
2013-03-11 13:12:00,33.6,28.1,29.71,West,263,2.0,18.0,80,0.00,,OVC013,0.01,VWS V14.01,2013-03-11 18:12:00,
2013-03-11 13:13:00,33.6,27.8,29.71,WSW,252,7.0,18.0,79,0.00,,OVC013,0.01,VWS V14.01,2013-03-11 18:13:00,
2013-03-11 13:15:00,33.6,27.8,29.72,West,263,5.0,18.0,79,0.00,,OVC013,0.01,VWS V14.01,2013-03-11 18:15:00,
2013-03-11 13:17:00,33.6,27.8,29.72,West,266,5.0,18.0,79,0.00,,OVC013,0.01,VWS V14.01,2013-03-11 18:17:00,
2013-03-11 13:18:00,33.6,27.8,29.72,WSW,255,3.0,18.0,79,0.00,,OVC013,0.01,VWS V14.01,2013-03-11 18:18:00,
2013-03-11 13:20:00,33.6,27.8,29.72,WNW,285,4.0,18.0,79,0.00,,OVC013,0.01,VWS V14.01,2013-03-11 18:20:00,
2013-03-11 13:22:00,33.7,27.9,29.72,WSW,250,4.0,18.0,79,0.00,,OVC013,0.01,VWS V14.01,2013-03-11 18:22:00,
2013-03-11 13:23:00,33.6,27.8,29.72,WSW,254,4.0,18.0,79,0.00,,OVC013,0.01,VWS V14.01,2013-03-11 18:23:00,
2013-03-11 13:25:00,33.3,28.7,29.72,WNW,295,12.0,18.0,83,0.00,,OVC013,0.01,VWS V14.01,2013-03-11 18:25:00,
2013-03-11 13:27:00,33.1,27.3,29.72,SW,228,4.0,18.0,79,0.00,,OVC013,0.01,VWS V14.01,2013-03-11 18:27:00,
2013-03-11 13:28:00,33.1,27.6,29.72,SW,234,5.0,18.0,80,0.00,,OVC013,0.01,VWS V14.01,2013-03-11 18:28:00,
2013-03-11 13:30:00,33.1,27.6,29.72,SSW,212,4.0,6.0,80,0.00,,OVC013,0.01,VWS V14.01,2013-03-11 18:30:00,
2013-03-11 13:32:00,33.1,27.6,29.72,NNW,342,5.0,12.0,80,0.00,,OVC013,0.01,VWS V14.01,2013-03-11 18:32:00,
2013-03-11 13:33:00,33.1,27.9,29.72,WSW,243,7.0,12.0,81,0.00,,OVC013,0.01,VWS V14.01,2013-03-11 18:33:00,
2013-03-11 13:35:00,33.1,27.9,29.72,WNW,292,2.0,12.0,81,0.00,,OVC013,0.01,VWS V14.01,2013-03-11 18:35:00,
2013-03-11 13:37:00,33.3,28.1,29.72,WSW,250,3.0,12.0,81,0.00,,OVC013,0.01,VWS V14.01,2013-03-11 18:37:00,
2013-03-11 13:38:00,33.3,28.1,29.72,WSW,253,3.0,12.0,81,0.00,,OVC013,0.01,VWS V14.01,2013-03-11 18:38:00,
2013-03-11 13:39:00,33.3,28.1,29.72,West,269,4.0,12.0,81,0.00,,OVC013,0.01,VWS V14.01,2013-03-11 18:39:00,
2013-03-11 13:40:00,33.3,28.1,29.72,SW,231,9.0,14.0,81,0.00,,OVC013,0.01,VWS V14.01,2013-03-11 18:40:00,
2013-03-11 13:42:00,33.3,28.1,29.72,SW,236,5.0,14.0,81,0.00,,OVC013,0.01,VWS V14.01,2013-03-11 18:42:00,
2013-03-11 13:44:00,33.1,27.9,29.73,SW,217,3.0,14.0,81,0.00,,OVC013,0.01,VWS V14.01,2013-03-11 18:44:00,
2013-03-11 13:45:00,33.1,27.9,29.73,SW,236,10.0,14.0,81,0.00,,OVC015,0.01,VWS V14.01,2013-03-11 18:45:00,
2013-03-11 13:47:00,33.1,27.9,29.73,SW,223,5.0,14.0,81,0.00,,OVC015,0.01,VWS V14.01,2013-03-11 18:47:00,
2013-03-11 13:49:00,33.1,27.9,29.73,WSW,242,2.0,14.0,81,0.00,,OVC015,0.01,VWS V14.01,2013-03-11 18:49:00,
2013-03-11 13:50:00,33.1,27.9,29.73,SW,235,5.0,14.0,81,0.00,,OVC015,0.01,VWS V14.01,2013-03-11 18:50:00,
2013-03-11 13:52:00,33.1,27.6,29.73,WSW,255,5.0,14.0,80,0.00,,OVC015,0.01,VWS V14.01,2013-03-11 18:52:00,
2013-03-11 13:54:00,33.1,27.6,29.73,West,267,5.0,14.0,80,0.00,,OVC015,0.01,VWS V14.01,2013-03-11 18:54:00,
2013-03-11 13:56:00,33.1,27.6,29.73,West,261,7.0,14.0,80,0.00,,OVC015,0.01,VWS V14.01,2013-03-11 18:56:00,
2013-03-11 13:57:00,33.1,27.6,29.73,SW,233,2.0,14.0,80,0.00,,OVC015,0.01,VWS V14.01,2013-03-11 18:57:00,
2013-03-11 13:59:00,33.3,27.8,29.73,WSW,240,0.0,14.0,80,0.00,,OVC015,0.01,VWS V14.01,2013-03-11 18:59:00,
2013-03-11 14:00:00,33.3,27.8,29.74,West,267,0.0,14.0,80,0.00,,OVC041,0.01,VWS V14.01,2013-03-11 19:00:00,
2013-03-11 14:01:00,33.3,27.8,29.73,West,281,7.0,10.0,80,0.00,,OVC015,0.01,VWS V14.01,2013-03-11 19:01:00,
2013-03-11 14:02:00,33.3,27.8,29.73,WNW,284,4.0,10.0,80,0.00,,OVC013,0.01,VWS V14.01,2013-03-11 19:02:00,
2013-03-11 14:04:00,33.3,27.5,29.73,WSW,255,3.0,10.0,79,0.00,,OVC013,0.01,VWS V14.01,2013-03-11 19:04:00,
2013-03-11 14:06:00,33.3,27.5,29.73,WSW,244,13.0,16.0,79,0.00,,OVC013,0.01,VWS V14.01,2013-03-11 19:06:00,
2013-03-11 14:08:00,33.3,27.5,29.73,WSW,243,7.0,16.0,79,0.00,,OVC013,0.01,VWS V14.01,2013-03-11 19:08:00,
2013-03-11 14:09:00,33.3,27.5,29.73,WSW,246,4.0,16.0,79,0.00,,OVC013,0.01,VWS V14.01,2013-03-11 19:09:00,
2013-03-11 14:12:00,33.1,27.3,29.73,SW,224,7.0,16.0,79,0.00,,OVC013,0.01,VWS V14.01,2013-03-11 19:12:00,
2013-03-11 14:13:00,33.1,27.0,29.73,West,275,5.0,16.0,78,0.00,,OVC013,0.01,VWS V14.01,2013-03-11 19:13:00,
2013-03-11 14:14:00,33.1,27.0,29.74,West,259,6.0,16.0,78,0.00,,OVC013,0.01,VWS V14.01,2013-03-11 19:14:00,
2013-03-11 14:17:00,33.1,27.0,29.74,SW,225,5.0,16.0,78,0.00,,OVC013,0.01,VWS V14.01,2013-03-11 19:17:00,
2013-03-11 14:18:00,33.3,27.2,29.74,WSW,248,5.0,16.0,78,0.00,,OVC013,0.01,VWS V14.01,2013-03-11 19:18:00,
2013-03-11 14:19:00,33.3,27.2,29.74,SW,229,7.0,16.0,78,0.00,,OVC013,0.01,VWS V14.01,2013-03-11 19:19:00,
2013-03-11 14:20:00,33.3,27.2,29.74,SW,229,2.0,16.0,78,0.00,,OVC013,0.01,VWS V14.01,2013-03-11 19:20:00,
2013-03-11 14:22:00,33.3,27.2,29.74,WSW,246,7.0,16.0,78,0.00,,OVC013,0.01,VWS V14.01,2013-03-11 19:22:00,
2013-03-11 14:23:00,33.3,27.2,29.74,West,281,2.0,16.0,78,0.00,,OVC013,0.01,VWS V14.01,2013-03-11 19:23:00,
2013-03-11 14:24:00,33.3,27.2,29.74,West,262,5.0,16.0,78,0.00,,OVC013,0.01,VWS V14.01,2013-03-11 19:24:00,
2013-03-11 14:25:00,33.3,27.2,29.74,West,274,3.0,16.0,78,0.00,,OVC013,0.01,VWS V14.01,2013-03-11 19:25:00,
2013-03-11 14:27:00,33.1,27.3,29.74,WNW,291,2.0,16.0,79,0.00,,OVC013,0.01,VWS V14.01,2013-03-11 19:27:00,
2013-03-11 14:28:00,33.1,27.3,29.74,SW,234,6.0,16.0,79,0.00,,OVC013,0.01,VWS V14.01,2013-03-11 19:28:00,
2013-03-11 14:29:00,33.1,28.5,29.74,West,267,4.0,16.0,83,0.00,,OVC013,0.01,VWS V14.01,2013-03-11 19:29:00,
2013-03-11 14:30:00,33.1,28.5,29.74,WSW,239,4.0,6.0,83,0.00,,OVC013,0.01,VWS V14.01,2013-03-11 19:30:00,
2013-03-11 14:33:00,33.1,27.6,29.74,WSW,237,1.0,10.0,80,0.00,,OVC013,0.01,VWS V14.01,2013-03-11 19:33:00,
2013-03-11 14:34:00,33.1,27.6,29.74,West,260,2.0,10.0,80,0.00,,OVC013,0.01,VWS V14.01,2013-03-11 19:34:00,
2013-03-11 14:35:00,33.1,27.6,29.74,WSW,257,5.0,10.0,80,0.00,,OVC013,0.01,VWS V14.01,2013-03-11 19:35:00,
2013-03-11 14:38:00,33.1,27.6,29.74,West,267,6.0,10.0,80,0.00,,OVC013,0.01,VWS V14.01,2013-03-11 19:38:00,
2013-03-11 14:39:00,33.1,27.6,29.74,WNW,289,10.0,13.0,80,0.00,,OVC013,0.01,VWS V14.01,2013-03-11 19:39:00,
2013-03-11 14:40:00,33.0,27.5,29.74,WSW,252,6.0,14.0,80,0.00,,OVC013,0.01,VWS V14.01,2013-03-11 19:40:00,
2013-03-11 14:43:00,32.8,27.3,29.74,SW,223,9.0,14.0,80,0.00,,OVC013,0.01,VWS V14.01,2013-03-11 19:43:00,
2013-03-11 14:44:00,32.8,27.3,29.73,SW,231,5.0,14.0,80,0.00,,OVC013,0.01,VWS V14.01,2013-03-11 19:44:00,
2013-03-11 14:45:00,32.8,27.3,29.73,SW,234,4.0,14.0,80,0.00,,OVC013,0.01,VWS V14.01,2013-03-11 19:45:00,
2013-03-11 14:49:00,33.0,27.5,29.73,West,261,2.0,14.0,80,0.00,,OVC013,0.01,VWS V14.01,2013-03-11 19:49:00,
2013-03-11 14:50:00,33.0,27.5,29.73,WSW,240,5.0,14.0,80,0.00,,OVC013,0.01,VWS V14.01,2013-03-11 19:50:00,
2013-03-11 14:54:00,33.1,27.3,29.73,WSW,248,7.0,14.0,79,0.00,,OVC013,0.01,VWS V14.01,2013-03-11 19:54:00,
2013-03-11 14:55:00,33.1,27.3,29.73,WSW,258,2.0,14.0,79,0.00,,OVC013,0.01,VWS V14.01,2013-03-11 19:55:00,
2013-03-11 14:59:00,33.3,27.8,29.74,West,267,0.0,14.0,80,0.00,,OVC013,0.01,VWS V14.01,2013-03-11 19:59:00,
2013-03-11 15:00:00,33.3,27.8,29.74,West,266,3.0,6.0,80,0.00,,OVC013,0.01,VWS V14.01,2013-03-11 20:00:00,
2013-03-11 15:04:00,33.1,27.6,29.74,WSW,244,0.0,10.0,80,0.00,,OVC013,0.01,VWS V14.01,2013-03-11 20:04:00,
2013-03-11 15:05:00,33.1,27.6,29.74,West,265,5.0,10.0,80,0.00,,OVC013,0.01,VWS V14.01,2013-03-11 20:05:00,
2013-03-11 15:06:00,33.1,27.6,29.74,West,272,4.0,10.0,80,0.00,,OVC013,0.01,VWS V14.01,2013-03-11 20:06:00,
2013-03-11 15:09:00,33.0,27.5,29.74,WSW,243,5.0,13.0,80,0.00,,OVC013,0.01,VWS V14.01,2013-03-11 20:09:00,
2013-03-11 15:10:00,33.0,27.5,29.74,WSW,258,6.0,13.0,80,0.00,,OVC013,0.01,VWS V14.01,2013-03-11 20:10:00,
2013-03-11 15:11:00,33.0,27.5,29.74,WSW,242,5.0,13.0,80,0.00,,OVC013,0.01,VWS V14.01,2013-03-11 20:11:00,
2013-03-11 15:14:00,33.1,27.3,29.75,West,266,2.0,13.0,79,0.00,,OVC013,0.01,VWS V14.01,2013-03-11 20:14:00,
2013-03-11 15:15:00,33.1,27.3,29.75,West,264,6.0,13.0,79,0.00,,OVC013,0.01,VWS V14.01,2013-03-11 20:15:00,
2013-03-11 15:16:00,33.1,27.3,29.75,West,274,11.0,13.0,79,0.00,,OVC013,0.01,VWS V14.01,2013-03-11 20:16:00,
2013-03-11 15:19:00,33.1,27.3,29.75,WNW,295,2.0,13.0,79,0.00,,OVC013,0.01,VWS V14.01,2013-03-11 20:19:00,
2013-03-11 15:20:00,33.1,27.3,29.75,WNW,288,3.0,13.0,79,0.00,,OVC013,0.01,VWS V14.01,2013-03-11 20:20:00,
2013-03-11 15:22:00,33.1,27.3,29.75,WSW,258,2.0,13.0,79,0.00,,OVC013,0.01,VWS V14.01,2013-03-11 20:22:00,
2013-03-11 15:24:00,33.1,27.3,29.75,WSW,243,3.0,13.0,79,0.00,,OVC013,0.01,VWS V14.01,2013-03-11 20:24:00,
2013-03-11 15:25:00,33.1,27.3,29.75,West,263,4.0,13.0,79,0.00,,OVC013,0.01,VWS V14.01,2013-03-11 20:25:00,
2013-03-11 15:26:00,33.1,27.3,29.75,SW,234,3.0,13.0,79,0.00,,OVC013,0.01,VWS V14.01,2013-03-11 20:26:00,
2013-03-11 15:27:00,33.1,27.3,29.75,SW,227,1.0,13.0,79,0.00,,OVC013,0.01,VWS V14.01,2013-03-11 20:27:00,
2013-03-11 15:29:00,33.1,27.3,29.75,WSW,256,8.0,16.0,79,0.00,,OVC013,0.01,VWS V14.01,2013-03-11 20:29:00,
2013-03-11 15:30:00,33.1,27.0,29.75,WSW,258,3.0,6.0,78,0.00,,OVC013,0.01,VWS V14.01,2013-03-11 20:30:00,
2013-03-11 15:31:00,33.1,27.3,29.75,West,259,2.0,7.0,79,0.00,,OVC013,0.01,VWS V14.01,2013-03-11 20:31:00,
2013-03-11 15:32:00,33.1,27.0,29.75,WSW,256,4.0,7.0,78,0.00,,OVC013,0.01,VWS V14.01,2013-03-11 20:32:00,
2013-03-11 15:34:00,33.1,27.0,29.75,WSW,257,5.0,10.0,78,0.00,,OVC013,0.01,VWS V14.01,2013-03-11 20:34:00,
2013-03-11 15:35:00,33.1,27.0,29.75,West,270,2.0,11.0,78,0.00,,OVC013,0.01,VWS V14.01,2013-03-11 20:35:00,
2013-03-11 15:36:00,33.1,27.0,29.75,WSW,242,3.0,11.0,78,0.00,,OVC013,0.01,VWS V14.01,2013-03-11 20:36:00,
2013-03-11 15:37:00,33.1,27.0,29.75,SW,232,2.0,11.0,78,0.00,,OVC013,0.01,VWS V14.01,2013-03-11 20:37:00,
2013-03-11 15:39:00,33.1,27.0,29.75,West,260,11.0,12.0,78,0.00,,OVC013,0.01,VWS V14.01,2013-03-11 20:39:00,
2013-03-11 15:40:00,33.1,27.0,29.75,West,263,5.0,13.0,78,0.00,,OVC013,0.01,VWS V14.01,2013-03-11 20:40:00,
2013-03-11 15:42:00,33.1,27.0,29.75,SW,229,4.0,13.0,78,0.00,,OVC013,0.01,VWS V14.01,2013-03-11 20:42:00,
2013-03-11 15:44:00,33.1,27.0,29.76,West,272,5.0,13.0,78,0.00,,OVC013,0.01,VWS V14.01,2013-03-11 20:44:00,
2013-03-11 15:45:00,33.3,27.2,29.76,West,273,3.0,13.0,78,0.00,,OVC015,0.01,VWS V14.01,2013-03-11 20:45:00,
2013-03-11 15:48:00,33.3,27.2,29.76,West,263,3.0,13.0,78,0.00,,OVC015,0.01,VWS V14.01,2013-03-11 20:48:00,
2013-03-11 15:49:00,33.3,27.2,29.76,West,265,3.0,13.0,78,0.00,,OVC015,0.01,VWS V14.01,2013-03-11 20:49:00,
2013-03-11 15:51:00,33.3,27.2,29.76,West,281,10.0,13.0,78,0.00,,OVC015,0.01,VWS V14.01,2013-03-11 20:51:00,
2013-03-11 15:53:00,33.3,27.2,29.76,West,263,0.0,15.0,78,0.00,,OVC015,0.01,VWS V14.01,2013-03-11 20:53:00,
2013-03-11 15:54:00,33.3,27.2,29.76,West,275,3.0,15.0,78,0.00,,OVC015,0.01,VWS V14.01,2013-03-11 20:54:00,
2013-03-11 15:56:00,33.3,27.2,29.76,West,275,7.0,15.0,78,0.00,,OVC015,0.01,VWS V14.01,2013-03-11 20:56:00,
2013-03-11 15:58:00,33.3,27.2,29.76,SW,234,11.0,15.0,78,0.00,,OVC015,0.01,VWS V14.01,2013-03-11 20:58:00,
2013-03-11 15:59:00,33.3,27.2,29.76,WNW,287,10.0,15.0,78,0.00,,OVC015,0.01,VWS V14.01,2013-03-11 20:59:00,
2013-03-11 16:00:00,33.6,27.2,29.78,WSW,244,3.0,15.0,77,0.00,,OVC041,0.01,VWS V14.01,2013-03-11 21:00:00,
2013-03-11 16:01:00,33.1,27.0,29.76,WSW,242,3.0,17.0,78,0.00,,OVC015,0.01,VWS V14.01,2013-03-11 21:01:00,
2013-03-11 16:03:00,33.1,26.7,29.76,SW,227,12.0,17.0,77,0.00,,OVC013,0.01,VWS V14.01,2013-03-11 21:03:00,
2013-03-11 16:04:00,33.1,27.0,29.76,WNW,300,16.0,17.0,78,0.00,,OVC013,0.01,VWS V14.01,2013-03-11 21:04:00,
2013-03-11 16:07:00,33.1,27.0,29.76,WNW,286,1.0,17.0,78,0.00,,OVC013,0.01,VWS V14.01,2013-03-11 21:07:00,
2013-03-11 16:09:00,33.3,26.9,29.76,SW,231,3.0,17.0,77,0.00,,OVC013,0.01,VWS V14.01,2013-03-11 21:09:00,
2013-03-11 16:10:00,33.3,27.2,29.76,West,273,3.0,17.0,78,0.00,,OVC013,0.01,VWS V14.01,2013-03-11 21:10:00,
2013-03-11 16:12:00,33.3,27.2,29.76,NW,313,2.0,17.0,78,0.00,,OVC013,0.01,VWS V14.01,2013-03-11 21:12:00,
2013-03-11 16:14:00,33.3,27.2,29.77,West,275,3.0,17.0,78,0.00,,OVC013,0.01,VWS V14.01,2013-03-11 21:14:00,
2013-03-11 16:15:00,33.3,27.2,29.77,WSW,254,4.0,17.0,78,0.00,,OVC013,0.01,VWS V14.01,2013-03-11 21:15:00,
2013-03-11 16:17:00,33.3,27.2,29.77,West,266,6.0,17.0,78,0.00,,OVC013,0.01,VWS V14.01,2013-03-11 21:17:00,
2013-03-11 16:19:00,33.3,27.2,29.77,West,275,5.0,17.0,78,0.00,,OVC013,0.01,VWS V14.01,2013-03-11 21:19:00,
2013-03-11 16:20:00,33.3,26.9,29.77,West,269,1.0,17.0,77,0.00,,OVC013,0.01,VWS V14.01,2013-03-11 21:20:00,
2013-03-11 16:22:00,33.3,27.2,29.77,West,265,1.0,17.0,78,0.00,,OVC013,0.01,VWS V14.01,2013-03-11 21:22:00,
2013-03-11 16:24:00,33.3,27.2,29.77,NW,309,1.0,17.0,78,0.00,,OVC013,0.01,VWS V14.01,2013-03-11 21:24:00,
2013-03-11 16:25:00,33.3,27.2,29.77,WSW,253,3.0,17.0,78,0.00,,OVC013,0.01,VWS V14.01,2013-03-11 21:25:00,
2013-03-11 16:27:00,33.3,27.2,29.77,West,263,3.0,17.0,78,0.00,,OVC013,0.01,VWS V14.01,2013-03-11 21:27:00,
2013-03-11 16:29:00,33.3,26.9,29.78,West,265,7.0,17.0,77,0.00,,OVC013,0.01,VWS V14.01,2013-03-11 21:29:00,
2013-03-11 16:30:00,33.3,26.9,29.78,WNW,286,10.0,10.0,77,0.00,,OVC013,0.01,VWS V14.01,2013-03-11 21:30:00,
2013-03-11 16:32:00,33.3,26.9,29.78,West,281,3.0,10.0,77,0.00,,OVC013,0.01,VWS V14.01,2013-03-11 21:32:00,
2013-03-11 16:35:00,33.3,27.2,29.78,West,277,6.0,10.0,78,0.00,,OVC013,0.01,VWS V14.01,2013-03-11 21:35:00,
2013-03-11 16:36:00,33.4,27.3,29.78,WNW,288,3.0,10.0,78,0.00,,OVC013,0.01,VWS V14.01,2013-03-11 21:36:00,
2013-03-11 16:37:00,33.4,27.3,29.78,WSW,250,0.0,10.0,78,0.00,,OVC013,0.01,VWS V14.01,2013-03-11 21:37:00,
2013-03-11 16:40:00,33.4,27.0,29.78,West,281,4.0,15.0,77,0.00,,OVC013,0.01,VWS V14.01,2013-03-11 21:40:00,
2013-03-11 16:41:00,33.4,27.0,29.78,WSW,257,3.0,15.0,77,0.00,,OVC013,0.01,VWS V14.01,2013-03-11 21:41:00,
2013-03-11 16:42:00,33.4,27.0,29.78,WNW,289,1.0,15.0,77,0.00,,OVC013,0.01,VWS V14.01,2013-03-11 21:42:00,
2013-03-11 16:45:00,33.4,27.3,29.77,West,271,4.0,15.0,78,0.00,,OVC013,0.01,VWS V14.01,2013-03-11 21:45:00,
2013-03-11 16:46:00,33.4,27.0,29.77,West,275,7.0,15.0,77,0.00,,OVC015,0.01,VWS V14.01,2013-03-11 21:46:00,
2013-03-11 16:47:00,33.4,27.0,29.77,West,270,5.0,15.0,77,0.00,,OVC015,0.01,VWS V14.01,2013-03-11 21:47:00,
2013-03-11 16:50:00,33.6,27.2,29.77,SW,232,3.0,15.0,77,0.00,,OVC015,0.01,VWS V14.01,2013-03-11 21:50:00,
2013-03-11 16:52:00,33.6,27.2,29.77,WNW,288,1.0,15.0,77,0.00,,OVC015,0.01,VWS V14.01,2013-03-11 21:52:00,
2013-03-11 16:53:00,33.6,27.2,29.77,WNW,288,0.0,15.0,77,0.00,,OVC015,0.01,VWS V14.01,2013-03-11 21:53:00,
2013-03-11 16:54:00,33.6,27.2,29.77,WSW,240,3.0,15.0,77,0.00,,OVC015,0.01,VWS V14.01,2013-03-11 21:54:00,
2013-03-11 16:55:00,33.6,27.2,29.77,WSW,238,7.0,15.0,77,0.00,,OVC015,0.01,VWS V14.01,2013-03-11 21:55:00,
2013-03-11 16:58:00,33.6,27.2,29.77,WNW,302,11.0,15.0,77,0.00,,OVC015,0.01,VWS V14.01,2013-03-11 21:58:00,
2013-03-11 16:59:00,33.6,27.2,29.78,West,278,0.0,15.0,77,0.00,,OVC015,0.01,VWS V14.01,2013-03-11 21:59:00,
2013-03-11 17:00:00,33.7,27.3,29.78,WSW,237,3.0,3.0,77,0.00,,OVC015,0.01,VWS V14.01,2013-03-11 22:00:00,
2013-03-11 17:03:00,33.7,27.3,29.78,WSW,249,3.0,7.0,77,0.00,,OVC017,0.01,VWS V14.01,2013-03-11 22:03:00,
2013-03-11 17:04:00,33.7,27.3,29.78,WSW,256,2.0,13.0,77,0.00,,OVC017,0.01,VWS V14.01,2013-03-11 22:04:00,
2013-03-11 17:05:00,33.7,27.3,29.78,West,273,2.0,13.0,77,0.00,,OVC017,0.01,VWS V14.01,2013-03-11 22:05:00,
2013-03-11 17:08:00,33.7,27.3,29.78,WNW,300,3.0,13.0,77,0.00,,OVC017,0.01,VWS V14.01,2013-03-11 22:08:00,
2013-03-11 17:09:00,33.7,27.3,29.78,West,274,5.0,13.0,77,0.00,,OVC017,0.01,VWS V14.01,2013-03-11 22:09:00,
2013-03-11 17:10:00,33.7,27.3,29.78,WSW,255,3.0,13.0,77,0.00,,OVC017,0.01,VWS V14.01,2013-03-11 22:10:00,
2013-03-11 17:13:00,33.7,27.3,29.78,West,263,1.0,13.0,77,0.00,,OVC017,0.01,VWS V14.01,2013-03-11 22:13:00,
2013-03-11 17:14:00,33.7,27.3,29.78,WNW,290,3.0,13.0,77,0.00,,OVC017,0.01,VWS V14.01,2013-03-11 22:14:00,
2013-03-11 17:17:00,33.7,27.3,29.78,West,271,4.0,13.0,77,0.00,,OVC017,0.01,VWS V14.01,2013-03-11 22:17:00,
2013-03-11 17:18:00,33.7,27.3,29.78,West,279,12.0,13.0,77,0.00,,OVC017,0.01,VWS V14.01,2013-03-11 22:18:00,
2013-03-11 17:19:00,33.7,27.3,29.78,WNW,288,7.0,14.0,77,0.00,,OVC017,0.01,VWS V14.01,2013-03-11 22:19:00,
2013-03-11 17:22:00,33.7,27.3,29.78,WNW,284,5.0,14.0,77,0.00,,OVC017,0.01,VWS V14.01,2013-03-11 22:22:00,
2013-03-11 17:23:00,33.7,27.3,29.78,West,267,4.0,14.0,77,0.00,,OVC017,0.01,VWS V14.01,2013-03-11 22:23:00,
2013-03-11 17:24:00,33.7,27.3,29.78,West,268,2.0,14.0,77,0.00,,OVC017,0.01,VWS V14.01,2013-03-11 22:24:00,
2013-03-11 17:25:00,33.7,27.3,29.78,WSW,257,3.0,14.0,77,0.00,,OVC017,0.01,VWS V14.01,2013-03-11 22:25:00,
2013-03-11 17:27:00,33.7,27.3,29.78,West,278,3.0,14.0,77,0.00,,OVC017,0.01,VWS V14.01,2013-03-11 22:27:00,
2013-03-11 17:28:00,33.7,27.3,29.78,West,267,7.0,14.0,77,0.00,,OVC017,0.01,VWS V14.01,2013-03-11 22:28:00,
2013-03-11 17:29:00,33.7,27.3,29.79,West,279,3.0,14.0,77,0.00,,OVC017,0.01,VWS V14.01,2013-03-11 22:29:00,
2013-03-11 17:30:00,33.7,27.0,29.79,West,263,5.0,12.0,76,0.00,,OVC017,0.01,VWS V14.01,2013-03-11 22:30:00,
2013-03-11 17:32:00,33.6,26.9,29.79,West,266,2.0,12.0,76,0.00,,OVC017,0.01,VWS V14.01,2013-03-11 22:32:00,
2013-03-11 17:33:00,33.6,27.2,29.79,WSW,248,7.0,12.0,77,0.00,,OVC017,0.01,VWS V14.01,2013-03-11 22:33:00,
2013-03-11 17:34:00,33.6,26.9,29.79,WNW,289,5.0,17.0,76,0.00,,OVC017,0.01,VWS V14.01,2013-03-11 22:34:00,
2013-03-11 17:35:00,33.6,26.9,29.79,WNW,291,6.0,17.0,76,0.00,,OVC017,0.01,VWS V14.01,2013-03-11 22:35:00,
2013-03-11 17:37:00,33.6,26.9,29.79,WSW,258,5.0,17.0,76,0.00,,OVC017,0.01,VWS V14.01,2013-03-11 22:37:00,
2013-03-11 17:38:00,33.6,26.9,29.79,West,265,4.0,17.0,76,0.00,,OVC017,0.01,VWS V14.01,2013-03-11 22:38:00,
2013-03-11 17:39:00,33.6,26.9,29.79,West,275,0.0,17.0,76,0.00,,OVC017,0.01,VWS V14.01,2013-03-11 22:39:00,
2013-03-11 17:40:00,33.6,26.9,29.79,West,271,11.0,17.0,76,0.00,,OVC017,0.01,VWS V14.01,2013-03-11 22:40:00,
2013-03-11 17:42:00,33.4,26.7,29.79,West,267,6.0,17.0,76,0.00,,OVC017,0.01,VWS V14.01,2013-03-11 22:42:00,
2013-03-11 17:43:00,33.4,26.7,29.79,WNW,285,16.0,17.0,76,0.00,,OVC017,0.01,VWS V14.01,2013-03-11 22:43:00,
2013-03-11 17:44:00,33.4,26.7,29.80,WNW,294,14.0,17.0,76,0.00,,OVC017,0.01,VWS V14.01,2013-03-11 22:44:00,
2013-03-11 17:45:00,33.4,26.7,29.80,West,277,2.0,17.0,76,0.00,,OVC017,0.01,VWS V14.01,2013-03-11 22:45:00,
2013-03-11 17:47:00,33.4,26.7,29.80,WSW,244,3.0,17.0,76,0.00,,OVC017,0.01,VWS V14.01,2013-03-11 22:47:00,
2013-03-11 17:48:00,33.4,26.7,29.80,West,266,10.0,17.0,76,0.00,,OVC017,0.01,VWS V14.01,2013-03-11 22:48:00,
2013-03-11 17:49:00,33.4,26.7,29.80,West,264,6.0,17.0,76,0.00,,OVC017,0.01,VWS V14.01,2013-03-11 22:49:00,
2013-03-11 17:50:00,33.4,26.7,29.80,WNW,283,2.0,17.0,76,0.00,,OVC017,0.01,VWS V14.01,2013-03-11 22:50:00,
2013-03-11 17:53:00,33.4,26.7,29.80,West,275,5.0,17.0,76,0.00,,OVC017,0.01,VWS V14.01,2013-03-11 22:53:00,
2013-03-11 17:54:00,33.4,26.7,29.80,West,267,6.0,17.0,76,0.00,,OVC017,0.01,VWS V14.01,2013-03-11 22:54:00,
2013-03-11 17:55:00,33.4,26.7,29.80,West,279,6.0,17.0,76,0.00,,OVC017,0.01,VWS V14.01,2013-03-11 22:55:00,
2013-03-11 17:58:00,33.4,26.3,29.80,WNW,287,5.0,17.0,75,0.00,,OVC017,0.01,VWS V14.01,2013-03-11 22:58:00,
2013-03-11 17:59:00,33.4,26.3,29.80,West,261,2.0,17.0,75,0.00,,OVC017,0.01,VWS V14.01,2013-03-11 22:59:00,
2013-03-11 18:00:00,33.4,26.3,29.81,West,280,7.0,7.0,75,0.00,,OVC017,0.01,VWS V14.01,2013-03-11 23:00:00,
2013-03-11 18:03:00,33.6,26.9,29.81,West,263,4.0,7.0,76,0.00,,OVC019,0.01,VWS V14.01,2013-03-11 23:03:00,
2013-03-11 18:04:00,33.6,26.9,29.81,West,273,2.0,7.0,76,0.00,,OVC019,0.01,VWS V14.01,2013-03-11 23:04:00,
2013-03-11 18:05:00,33.6,26.9,29.81,West,266,1.0,7.0,76,0.00,,OVC019,0.01,VWS V14.01,2013-03-11 23:05:00,
2013-03-11 18:09:00,33.6,26.9,29.81,SW,228,3.0,7.0,76,0.00,,OVC019,0.01,VWS V14.01,2013-03-11 23:09:00,
2013-03-11 18:11:00,33.6,26.9,29.81,WSW,245,4.0,12.0,76,0.00,,OVC019,0.01,VWS V14.01,2013-03-11 23:11:00,
2013-03-11 18:14:00,33.6,26.9,29.82,SW,232,3.0,12.0,76,0.00,,OVC019,0.01,VWS V14.01,2013-03-11 23:14:00,
2013-03-11 18:15:00,33.6,26.9,29.82,WSW,239,2.0,12.0,76,0.00,,OVC019,0.01,VWS V14.01,2013-03-11 23:15:00,
2013-03-11 18:16:00,33.6,26.9,29.82,WSW,239,0.0,12.0,76,0.00,,OVC019,0.01,VWS V14.01,2013-03-11 23:16:00,
2013-03-11 18:19:00,33.6,26.9,29.82,West,275,0.0,12.0,76,0.00,,OVC019,0.01,VWS V14.01,2013-03-11 23:19:00,
2013-03-11 18:20:00,33.6,26.9,29.82,West,262,4.0,12.0,76,0.00,,OVC019,0.01,VWS V14.01,2013-03-11 23:20:00,
2013-03-11 18:22:00,33.6,26.9,29.82,WNW,285,2.0,12.0,76,0.00,,OVC019,0.01,VWS V14.01,2013-03-11 23:22:00,
2013-03-11 18:24:00,33.6,26.5,29.82,WSW,255,3.0,12.0,75,0.00,,OVC019,0.01,VWS V14.01,2013-03-11 23:24:00,
2013-03-11 18:25:00,33.6,26.5,29.82,WSW,256,2.0,12.0,75,0.00,,OVC019,0.01,VWS V14.01,2013-03-11 23:25:00,
2013-03-11 18:27:00,33.6,26.5,29.82,WSW,244,2.0,12.0,75,0.00,,OVC019,0.01,VWS V14.01,2013-03-11 23:27:00,
2013-03-11 18:29:00,33.6,26.5,29.83,West,261,0.0,12.0,75,0.00,,OVC019,0.01,VWS V14.01,2013-03-11 23:29:00,
2013-03-11 18:30:00,33.6,26.5,29.83,West,260,0.0,0.0,75,0.00,,OVC019,0.01,VWS V14.01,2013-03-11 23:30:00,
2013-03-11 18:33:00,33.7,26.6,29.83,WSW,254,1.0,6.0,75,0.00,,OVC019,0.01,VWS V14.01,2013-03-11 23:33:00,
2013-03-11 18:34:00,33.7,26.6,29.83,West,273,2.0,6.0,75,0.00,,OVC019,0.01,VWS V14.01,2013-03-11 23:34:00,
2013-03-11 18:35:00,33.7,26.6,29.83,West,267,2.0,6.0,75,0.00,,OVC019,0.01,VWS V14.01,2013-03-11 23:35:00,
2013-03-11 18:38:00,33.7,26.6,29.83,SW,236,2.0,6.0,75,0.00,,OVC019,0.01,VWS V14.01,2013-03-11 23:38:00,
2013-03-11 18:40:00,33.7,26.6,29.83,West,276,0.0,6.0,75,0.00,,OVC019,0.01,VWS V14.01,2013-03-11 23:40:00,
2013-03-11 18:43:00,33.7,26.6,29.83,WSW,248,0.0,7.0,75,0.00,,OVC019,0.01,VWS V14.01,2013-03-11 23:43:00,
2013-03-11 18:45:00,33.7,26.6,29.83,WSW,252,2.0,7.0,75,0.00,,OVC019,0.01,VWS V14.01,2013-03-11 23:45:00,
2013-03-11 18:48:00,33.7,26.6,29.83,West,265,5.0,7.0,75,0.00,,OVC023,0.01,VWS V14.01,2013-03-11 23:48:00,
2013-03-11 18:50:00,33.7,26.6,29.83,West,274,4.0,7.0,75,0.00,,OVC023,0.01,VWS V14.01,2013-03-11 23:50:00,
2013-03-11 18:55:00,33.9,26.5,29.83,WSW,238,0.0,7.0,74,0.00,,OVC023,0.01,VWS V14.01,2013-03-11 23:55:00,
2013-03-11 18:56:00,33.9,26.5,29.83,SW,233,5.0,7.0,74,0.00,,OVC023,0.01,VWS V14.01,2013-03-11 23:56:00,
2013-03-11 19:00:00,33.9,26.5,29.84,West,260,0.0,2.0,74,0.00,,OVC023,0.01,VWS V14.01,2013-03-12 00:00:00,
2013-03-11 19:01:00,33.9,26.5,29.84,SW,226,3.0,4.0,74,0.00,,OVC025,0.01,VWS V14.01,2013-03-12 00:01:00,
2013-03-11 19:05:00,33.9,26.5,29.84,West,272,0.0,13.0,74,0.00,,OVC025,0.01,VWS V14.01,2013-03-12 00:05:00,
2013-03-11 19:06:00,33.9,26.5,29.84,WSW,245,1.0,13.0,74,0.00,,OVC025,0.01,VWS V14.01,2013-03-12 00:06:00,
2013-03-11 19:10:00,33.9,26.2,29.84,West,270,4.0,13.0,73,0.00,,OVC025,0.01,VWS V14.01,2013-03-12 00:10:00,
2013-03-11 19:12:00,33.9,26.2,29.84,West,276,1.0,13.0,73,0.00,,OVC025,0.01,VWS V14.01,2013-03-12 00:12:00,
2013-03-11 19:15:00,33.9,26.2,29.85,West,262,0.0,13.0,73,0.00,,OVC025,0.01,VWS V14.01,2013-03-12 00:15:00,
2013-03-11 19:16:00,33.9,26.2,29.85,West,262,0.0,13.0,73,0.00,,OVC025,0.01,VWS V14.01,2013-03-12 00:16:00,
2013-03-11 19:17:00,33.9,26.2,29.85,West,263,0.0,13.0,73,0.00,,OVC025,0.01,VWS V14.01,2013-03-12 00:17:00,
2013-03-11 19:20:00,33.9,26.5,29.85,West,271,0.0,13.0,74,0.00,,OVC025,0.01,VWS V14.01,2013-03-12 00:20:00,
2013-03-11 19:21:00,33.9,26.5,29.85,SW,226,4.0,13.0,74,0.00,,OVC025,0.01,VWS V14.01,2013-03-12 00:21:00,
2013-03-11 19:22:00,33.9,26.5,29.85,WSW,255,0.0,13.0,74,0.00,,OVC025,0.01,VWS V14.01,2013-03-12 00:22:00,
2013-03-11 19:25:00,33.9,26.5,29.85,WNW,284,3.0,13.0,74,0.00,,OVC025,0.01,VWS V14.01,2013-03-12 00:25:00,
2013-03-11 19:26:00,33.9,26.5,29.85,West,280,10.0,13.0,74,0.00,,OVC025,0.01,VWS V14.01,2013-03-12 00:26:00,
2013-03-11 19:28:00,33.9,26.2,29.85,West,274,6.0,13.0,73,0.00,,OVC025,0.01,VWS V14.01,2013-03-12 00:28:00,
2013-03-11 19:30:00,33.9,26.2,29.85,West,267,3.0,7.0,73,0.00,,OVC025,0.01,VWS V14.01,2013-03-12 00:30:00,
2013-03-11 19:31:00,33.9,26.2,29.85,West,265,3.0,7.0,73,0.00,,OVC028,0.01,VWS V14.01,2013-03-12 00:31:00,
2013-03-11 19:33:00,33.9,26.2,29.85,WSW,258,3.0,7.0,73,0.00,,OVC028,0.01,VWS V14.01,2013-03-12 00:33:00,
2013-03-11 19:35:00,33.9,26.2,29.85,West,271,2.0,7.0,73,0.00,,OVC028,0.01,VWS V14.01,2013-03-12 00:35:00,
2013-03-11 19:36:00,33.9,26.2,29.85,West,273,0.0,7.0,73,0.00,,OVC028,0.01,VWS V14.01,2013-03-12 00:36:00,
2013-03-11 19:38:00,33.9,26.2,29.85,WSW,258,4.0,7.0,73,0.00,,OVC028,0.01,VWS V14.01,2013-03-12 00:38:00,
2013-03-11 19:40:00,33.9,26.2,29.85,West,261,3.0,12.0,73,0.00,,OVC028,0.01,VWS V14.01,2013-03-12 00:40:00,
2013-03-11 19:42:00,33.9,26.2,29.85,WNW,285,1.0,12.0,73,0.00,,OVC028,0.01,VWS V14.01,2013-03-12 00:42:00,
2013-03-11 19:43:00,33.9,26.2,29.85,WSW,253,4.0,12.0,73,0.00,,OVC028,0.01,VWS V14.01,2013-03-12 00:43:00,
2013-03-11 19:46:00,33.9,26.2,29.85,WNW,289,5.0,12.0,73,0.00,,OVC023,0.01,VWS V14.01,2013-03-12 00:46:00,
2013-03-11 19:47:00,33.9,26.2,29.85,WNW,289,2.0,12.0,73,0.00,,OVC023,0.01,VWS V14.01,2013-03-12 00:47:00,
2013-03-11 19:48:00,33.9,26.2,29.85,West,277,0.0,12.0,73,0.00,,OVC023,0.01,VWS V14.01,2013-03-12 00:48:00,
2013-03-11 19:52:00,33.9,26.2,29.85,SW,234,0.0,12.0,73,0.00,,OVC023,0.01,VWS V14.01,2013-03-12 00:52:00,
2013-03-11 19:53:00,33.9,26.2,29.85,SW,235,0.0,12.0,73,0.00,,OVC023,0.01,VWS V14.01,2013-03-12 00:53:00,
2013-03-11 19:57:00,33.9,26.2,29.85,NW,311,4.0,12.0,73,0.00,,OVC023,0.01,VWS V14.01,2013-03-12 00:57:00,
2013-03-11 19:58:00,33.9,26.2,29.85,West,265,2.0,12.0,73,0.00,,OVC023,0.01,VWS V14.01,2013-03-12 00:58:00,
2013-03-11 20:00:00,33.9,25.8,29.89,WNW,283,0.0,12.0,72,0.00,,OVC041,0.01,VWS V14.01,2013-03-12 01:00:00,
2013-03-11 20:02:00,33.9,26.2,29.85,North,360,4.0,14.0,73,0.00,,OVC023,0.01,VWS V14.01,2013-03-12 01:02:00,
2013-03-11 20:03:00,33.9,26.2,29.85,WNW,298,2.0,14.0,73,0.00,,OVC023,0.01,VWS V14.01,2013-03-12 01:03:00,
2013-03-11 20:07:00,33.9,26.2,29.85,West,270,5.0,14.0,73,0.00,,OVC023,0.01,VWS V14.01,2013-03-12 01:07:00,
2013-03-11 20:08:00,33.9,25.8,29.85,West,275,3.0,14.0,72,0.00,,OVC023,0.01,VWS V14.01,2013-03-12 01:08:00,
2013-03-11 20:12:00,33.9,25.8,29.85,West,267,4.0,14.0,72,0.00,,OVC023,0.01,VWS V14.01,2013-03-12 01:12:00,
2013-03-11 20:13:00,33.9,25.8,29.85,West,277,3.0,14.0,72,0.00,,OVC023,0.01,VWS V14.01,2013-03-12 01:13:00,
2013-03-11 20:17:00,33.9,25.5,29.86,WNW,285,6.0,14.0,71,0.00,,OVC023,0.01,VWS V14.01,2013-03-12 01:17:00,
2013-03-11 20:18:00,33.9,25.5,29.86,WNW,294,0.0,14.0,71,0.00,,OVC023,0.01,VWS V14.01,2013-03-12 01:18:00,
2013-03-11 20:19:00,33.9,25.5,29.86,WNW,300,2.0,14.0,71,0.00,,OVC023,0.01,VWS V14.01,2013-03-12 01:19:00,
2013-03-11 20:23:00,33.9,25.5,29.86,West,264,3.0,14.0,71,0.00,,OVC023,0.01,VWS V14.01,2013-03-12 01:23:00,
2013-03-11 20:24:00,33.9,25.5,29.86,SW,229,5.0,14.0,71,0.00,,OVC023,0.01,VWS V14.01,2013-03-12 01:24:00,
2013-03-11 20:28:00,33.9,25.5,29.86,West,266,4.0,14.0,71,0.00,,OVC023,0.01,VWS V14.01,2013-03-12 01:28:00,
2013-03-11 20:29:00,33.9,25.5,29.87,West,269,0.0,14.0,71,0.00,,OVC023,0.01,VWS V14.01,2013-03-12 01:29:00,
2013-03-11 20:30:00,33.9,26.2,29.90,WSW,258,0.0,7.0,73,0.00,,OVC041,0.01,VWS V14.01,2013-03-12 01:30:00,
2013-03-11 20:33:00,33.9,25.8,29.87,West,267,0.0,12.0,72,0.00,,OVC023,0.01,VWS V14.01,2013-03-12 01:33:00,
2013-03-11 20:34:00,33.9,25.8,29.87,SW,223,1.0,12.0,72,0.00,,OVC023,0.01,VWS V14.01,2013-03-12 01:34:00,
2013-03-11 20:38:00,33.9,25.8,29.87,WNW,286,3.0,12.0,72,0.00,,OVC023,0.01,VWS V14.01,2013-03-12 01:38:00,
2013-03-11 20:39:00,33.9,25.8,29.87,West,267,2.0,12.0,72,0.00,,OVC023,0.01,VWS V14.01,2013-03-12 01:39:00,
2013-03-11 20:43:00,33.9,25.8,29.87,WNW,288,0.0,12.0,72,0.00,,OVC023,0.01,VWS V14.01,2013-03-12 01:43:00,
2013-03-11 20:44:00,33.9,25.8,29.88,WSW,255,3.0,12.0,72,0.00,,OVC023,0.01,VWS V14.01,2013-03-12 01:44:00,
2013-03-11 20:48:00,33.9,25.8,29.88,West,267,2.0,12.0,72,0.00,,OVC023,0.01,VWS V14.01,2013-03-12 01:48:00,
2013-03-11 20:49:00,33.9,25.8,29.88,West,267,1.0,12.0,72,0.00,,OVC023,0.01,VWS V14.01,2013-03-12 01:49:00,
2013-03-11 20:53:00,33.9,25.8,29.88,West,274,0.0,12.0,72,0.00,,OVC023,0.01,VWS V14.01,2013-03-12 01:53:00,
2013-03-11 20:54:00,33.9,25.8,29.88,West,274,0.0,12.0,72,0.00,,OVC023,0.01,VWS V14.01,2013-03-12 01:54:00,
2013-03-11 20:59:00,33.9,25.8,29.88,WNW,283,1.0,12.0,72,0.00,,OVC023,0.01,VWS V14.01,2013-03-12 01:59:00,
2013-03-11 21:00:00,33.9,25.8,29.89,WNW,283,0.0,12.0,72,0.00,,OVC023,0.01,VWS V14.01,2013-03-12 02:00:00,
2013-03-11 21:04:00,33.9,25.8,29.89,WSW,249,0.0,1.0,72,0.00,,OVC023,0.01,VWS V14.01,2013-03-12 02:04:00,
2013-03-11 21:05:00,33.9,25.8,29.89,WSW,244,0.0,2.0,72,0.00,,OVC023,0.01,VWS V14.01,2013-03-12 02:05:00,
2013-03-11 21:09:00,33.9,26.2,29.89,NW,306,0.0,5.0,73,0.00,,OVC023,0.01,VWS V14.01,2013-03-12 02:09:00,
2013-03-11 21:10:00,33.9,26.2,29.89,West,273,0.0,5.0,73,0.00,,OVC023,0.01,VWS V14.01,2013-03-12 02:10:00,
2013-03-11 21:14:00,33.9,25.8,29.90,West,267,0.0,6.0,72,0.00,,OVC023,0.01,VWS V14.01,2013-03-12 02:14:00,
2013-03-11 21:15:00,33.9,25.8,29.90,West,277,0.0,7.0,72,0.00,,OVC023,0.01,VWS V14.01,2013-03-12 02:15:00,
2013-03-11 21:19:00,33.9,25.8,29.90,West,259,0.0,7.0,72,0.00,,OVC023,0.01,VWS V14.01,2013-03-12 02:19:00,
2013-03-11 21:20:00,33.9,25.8,29.90,WSW,250,1.0,7.0,72,0.00,,OVC023,0.01,VWS V14.01,2013-03-12 02:20:00,
2013-03-11 21:24:00,33.9,26.2,29.90,West,274,3.0,7.0,73,0.00,,OVC023,0.01,VWS V14.01,2013-03-12 02:24:00,
2013-03-11 21:25:00,33.9,26.2,29.90,WSW,249,3.0,7.0,73,0.00,,OVC023,0.01,VWS V14.01,2013-03-12 02:25:00,
2013-03-11 21:29:00,33.9,26.2,29.90,West,275,0.0,7.0,73,0.00,,OVC023,0.01,VWS V14.01,2013-03-12 02:29:00,
2013-03-11 21:30:00,33.9,26.2,29.90,WSW,258,0.0,7.0,73,0.00,,OVC023,0.01,VWS V14.01,2013-03-12 02:30:00,
2013-03-11 21:34:00,33.9,26.5,29.90,West,281,0.0,5.0,74,0.00,,OVC023,0.01,VWS V14.01,2013-03-12 02:34:00,
2013-03-11 21:35:00,33.9,26.5,29.90,West,271,0.0,5.0,74,0.00,,OVC023,0.01,VWS V14.01,2013-03-12 02:35:00,
2013-03-11 21:36:00,33.9,26.5,29.90,West,270,0.0,5.0,74,0.00,,OVC023,0.01,VWS V14.01,2013-03-12 02:36:00,
2013-03-11 21:39:00,33.9,26.5,29.90,West,269,0.0,5.0,74,0.00,,OVC023,0.01,VWS V14.01,2013-03-12 02:39:00,
2013-03-11 21:40:00,33.9,26.5,29.90,West,269,0.0,5.0,74,0.00,,OVC023,0.01,VWS V14.01,2013-03-12 02:40:00,
2013-03-11 21:41:00,33.9,26.5,29.90,West,271,2.0,5.0,74,0.00,,OVC023,0.01,VWS V14.01,2013-03-12 02:41:00,
2013-03-11 21:44:00,33.7,26.3,29.90,WSW,240,0.0,5.0,74,0.00,,OVC023,0.01,VWS V14.01,2013-03-12 02:44:00,
2013-03-11 21:45:00,33.7,26.3,29.90,WSW,243,0.0,5.0,74,0.00,,OVC023,0.01,VWS V14.01,2013-03-12 02:45:00,
2013-03-11 21:46:00,33.7,26.3,29.90,NW,304,0.0,5.0,74,0.00,,OVC023,0.01,VWS V14.01,2013-03-12 02:46:00,
2013-03-11 21:49:00,33.7,26.3,29.90,SW,218,0.0,5.0,74,0.00,,OVC023,0.01,VWS V14.01,2013-03-12 02:49:00,
2013-03-11 21:50:00,33.7,26.3,29.90,SW,218,0.0,5.0,74,0.00,,OVC023,0.01,VWS V14.01,2013-03-12 02:50:00,
2013-03-11 21:51:00,33.7,26.3,29.90,SW,219,0.0,5.0,74,0.00,,OVC023,0.01,VWS V14.01,2013-03-12 02:51:00,
2013-03-11 21:55:00,33.7,26.3,29.90,West,277,0.0,5.0,74,0.00,,OVC023,0.01,VWS V14.01,2013-03-12 02:55:00,
2013-03-11 21:56:00,33.7,26.3,29.90,West,277,0.0,5.0,74,0.00,,OVC023,0.01,VWS V14.01,2013-03-12 02:56:00,
2013-03-11 22:00:00,33.7,26.6,29.90,West,270,0.0,5.0,75,0.00,,OVC023,0.01,VWS V14.01,2013-03-12 03:00:00,
2013-03-11 22:01:00,33.7,26.6,29.90,West,279,0.0,4.0,75,0.00,,OVC025,0.01,VWS V14.01,2013-03-12 03:01:00,
2013-03-11 22:02:00,33.6,26.5,29.93,WNW,287,3.0,5.0,75,0.00,,OVC029,0.01,VWS V14.01,2013-03-12 03:02:00,
2013-03-11 22:03:00,33.6,26.5,29.93,SW,232,0.0,5.0,75,0.00,,OVC029,0.01,VWS V14.01,2013-03-12 03:03:00,
2013-03-11 22:04:00,33.6,26.5,29.93,WSW,254,0.0,5.0,75,0.00,,OVC029,0.01,VWS V14.01,2013-03-12 03:04:00,
2013-03-11 22:05:00,33.7,26.6,29.90,West,279,0.0,4.0,75,0.00,,OVC025,0.01,VWS V14.01,2013-03-12 03:05:00,
2013-03-11 22:06:00,33.6,26.5,29.93,WSW,242,0.0,5.0,75,0.00,,OVC029,0.01,VWS V14.01,2013-03-12 03:06:00,
2013-03-11 22:07:00,33.7,26.6,29.90,West,267,0.0,4.0,75,0.00,,OVC025,0.01,VWS V14.01,2013-03-12 03:07:00,
2013-03-11 22:10:00,33.6,26.5,29.90,West,265,0.0,4.0,75,0.00,,OVC025,0.01,VWS V14.01,2013-03-12 03:10:00,
2013-03-11 22:12:00,33.6,26.5,29.90,West,262,0.0,4.0,75,0.00,,OVC025,0.01,VWS V14.01,2013-03-12 03:12:00,
2013-03-11 22:15:00,33.6,26.5,29.91,West,270,3.0,6.0,75,0.00,,OVC025,0.01,VWS V14.01,2013-03-12 03:15:00,
2013-03-11 22:18:00,33.6,26.9,29.91,West,280,0.0,6.0,76,0.00,,OVC025,0.01,VWS V14.01,2013-03-12 03:18:00,
2013-03-11 22:20:00,33.6,26.9,29.91,West,274,5.0,6.0,76,0.00,,OVC025,0.01,VWS V14.01,2013-03-12 03:20:00,
2013-03-11 22:23:00,33.6,26.9,29.91,WSW,245,2.0,6.0,76,0.00,,OVC025,0.01,VWS V14.01,2013-03-12 03:23:00,
2013-03-11 22:25:00,33.6,26.9,29.91,West,267,0.0,6.0,76,0.00,,OVC025,0.01,VWS V14.01,2013-03-12 03:25:00,
2013-03-11 22:28:00,33.7,27.0,29.91,West,277,1.0,6.0,76,0.00,,OVC025,0.01,VWS V14.01,2013-03-12 03:28:00,
2013-03-11 22:30:00,33.6,26.9,29.91,West,264,2.0,5.0,76,0.00,,OVC025,0.01,VWS V14.01,2013-03-12 03:30:00,
2013-03-11 22:34:00,33.6,26.9,29.91,West,269,0.0,5.0,76,0.00,,OVC025,0.01,VWS V14.01,2013-03-12 03:34:00,
2013-03-11 22:35:00,33.6,26.9,29.91,West,267,0.0,5.0,76,0.00,,OVC025,0.01,VWS V14.01,2013-03-12 03:35:00,
2013-03-11 22:36:00,33.6,26.9,29.91,West,259,0.0,5.0,76,0.00,,OVC025,0.01,VWS V14.01,2013-03-12 03:36:00,
2013-03-11 22:39:00,33.6,26.9,29.91,SSW,208,6.0,6.0,76,0.00,,OVC025,0.01,VWS V14.01,2013-03-12 03:39:00,
2013-03-11 22:40:00,33.6,26.9,29.91,WNW,293,4.0,7.0,76,0.00,,OVC025,0.01,VWS V14.01,2013-03-12 03:40:00,
2013-03-11 22:41:00,33.6,26.9,29.91,West,273,3.0,7.0,76,0.00,,OVC025,0.01,VWS V14.01,2013-03-12 03:41:00,
2013-03-11 22:44:00,33.6,26.5,29.92,West,273,3.0,7.0,75,0.00,,OVC025,0.01,VWS V14.01,2013-03-12 03:44:00,
2013-03-11 22:45:00,33.6,26.5,29.92,WNW,288,0.0,7.0,75,0.00,,OVC025,0.01,VWS V14.01,2013-03-12 03:45:00,
2013-03-11 22:47:00,33.6,26.5,29.92,West,261,0.0,7.0,75,0.00,,OVC027,0.01,VWS V14.01,2013-03-12 03:47:00,
2013-03-11 22:49:00,33.6,26.5,29.92,WNW,290,2.0,7.0,75,0.00,,OVC027,0.01,VWS V14.01,2013-03-12 03:49:00,
2013-03-11 22:50:00,33.6,26.5,29.92,West,275,8.0,8.0,75,0.00,,OVC027,0.01,VWS V14.01,2013-03-12 03:50:00,
2013-03-11 22:52:00,33.6,26.5,29.92,West,263,3.0,9.0,75,0.00,,OVC027,0.01,VWS V14.01,2013-03-12 03:52:00,
2013-03-11 22:54:00,33.6,26.5,29.92,West,262,4.0,9.0,75,0.00,,OVC027,0.01,VWS V14.01,2013-03-12 03:54:00,
2013-03-11 22:55:00,33.6,26.5,29.92,West,265,3.0,9.0,75,0.00,,OVC027,0.01,VWS V14.01,2013-03-12 03:55:00,
2013-03-11 22:56:00,33.6,26.5,29.92,SW,232,4.0,9.0,75,0.00,,OVC027,0.01,VWS V14.01,2013-03-12 03:56:00,
2013-03-11 22:57:00,33.6,26.5,29.92,WNW,284,2.0,9.0,75,0.00,,OVC027,0.01,VWS V14.01,2013-03-12 03:57:00,
2013-03-11 22:59:00,33.6,26.5,29.93,WNW,282,4.0,9.0,75,0.00,,OVC027,0.01,VWS V14.01,2013-03-12 03:59:00,
2013-03-11 23:00:00,33.3,24.2,29.93,WSW,248,5.0,10.0,69,0.00,,OVC041,0.01,VWS V14.01,2013-03-12 04:00:00,
2013-03-11 23:03:00,33.6,26.5,29.93,WSW,254,0.0,5.0,75,0.00,,OVC029,0.01,VWS V14.01,2013-03-12 04:03:00,
2013-03-11 23:04:00,33.6,26.5,29.93,WSW,254,0.0,5.0,75,0.00,,OVC029,0.01,VWS V14.01,2013-03-12 04:04:00,
2013-03-11 23:07:00,33.6,26.5,29.93,West,281,5.0,5.0,75,0.00,,OVC029,0.01,VWS V14.01,2013-03-12 04:07:00,
2013-03-11 23:08:00,33.6,26.5,29.93,WSW,244,3.0,5.0,75,0.00,,OVC029,0.01,VWS V14.01,2013-03-12 04:08:00,
2013-03-11 23:09:00,33.6,26.5,29.93,WSW,244,0.0,5.0,75,0.00,,OVC029,0.01,VWS V14.01,2013-03-12 04:09:00,
2013-03-11 23:12:00,33.6,26.2,29.93,West,267,0.0,6.0,74,0.00,,OVC029,0.01,VWS V14.01,2013-03-12 04:12:00,
2013-03-11 23:14:00,33.6,26.2,29.93,West,273,2.0,6.0,74,0.00,,OVC029,0.01,VWS V14.01,2013-03-12 04:14:00,
2013-03-11 23:15:00,33.6,26.5,29.92,West,265,4.0,6.0,75,0.00,,OVC029,0.01,VWS V14.01,2013-03-12 04:15:00,
2013-03-11 23:17:00,33.6,26.2,29.92,WSW,251,0.0,6.0,74,0.00,,OVC029,0.01,VWS V14.01,2013-03-12 04:17:00,
2013-03-11 23:19:00,33.6,26.5,29.92,WSW,258,0.0,6.0,75,0.00,,OVC029,0.01,VWS V14.01,2013-03-12 04:19:00,
2013-03-11 23:20:00,33.6,26.2,29.92,West,265,0.0,6.0,74,0.00,,OVC029,0.01,VWS V14.01,2013-03-12 04:20:00,
2013-03-11 23:22:00,33.4,26.3,29.92,West,262,0.0,6.0,75,0.00,,OVC029,0.01,VWS V14.01,2013-03-12 04:22:00,
2013-03-11 23:24:00,33.4,26.0,29.92,SW,233,0.0,6.0,74,0.00,,OVC029,0.01,VWS V14.01,2013-03-12 04:24:00,
2013-03-11 23:25:00,33.4,26.0,29.92,WSW,245,3.0,6.0,74,0.00,,OVC029,0.01,VWS V14.01,2013-03-12 04:25:00,
2013-03-11 23:27:00,33.4,26.0,29.92,WSW,256,0.0,6.0,74,0.00,,OVC029,0.01,VWS V14.01,2013-03-12 04:27:00,
2013-03-11 23:29:00,33.4,26.0,29.93,West,259,3.0,6.0,74,0.00,,OVC029,0.01,VWS V14.01,2013-03-12 04:29:00,
2013-03-11 23:30:00,33.4,26.0,29.93,West,259,4.0,4.0,74,0.00,,OVC029,0.01,VWS V14.01,2013-03-12 04:30:00,
2013-03-11 23:32:00,33.4,26.0,29.93,WSW,250,3.0,6.0,74,0.00,,OVC029,0.01,VWS V14.01,2013-03-12 04:32:00,
2013-03-11 23:34:00,33.4,25.7,29.93,West,271,0.0,6.0,73,0.00,,OVC029,0.01,VWS V14.01,2013-03-12 04:34:00,
2013-03-11 23:36:00,33.4,25.7,29.93,WNW,285,1.0,6.0,73,0.00,,OVC029,0.01,VWS V14.01,2013-03-12 04:36:00,
2013-03-11 23:37:00,33.4,25.7,29.93,West,279,0.0,6.0,73,0.00,,OVC029,0.01,VWS V14.01,2013-03-12 04:37:00,
2013-03-11 23:39:00,33.4,25.7,29.93,WSW,247,0.0,6.0,73,0.00,,OVC029,0.01,VWS V14.01,2013-03-12 04:39:00,
2013-03-11 23:42:00,33.3,25.6,29.93,SW,235,0.0,6.0,73,0.00,,OVC029,0.01,VWS V14.01,2013-03-12 04:42:00,
2013-03-11 23:43:00,33.4,25.7,29.93,WNW,286,0.0,6.0,73,0.00,,OVC029,0.01,VWS V14.01,2013-03-12 04:43:00,
2013-03-11 23:44:00,33.4,25.7,29.93,West,279,0.0,6.0,73,0.00,,OVC029,0.01,VWS V14.01,2013-03-12 04:44:00,
2013-03-11 23:47:00,33.3,25.6,29.93,SW,228,2.0,7.0,73,0.00,,OVC029,0.01,VWS V14.01,2013-03-12 04:47:00,
2013-03-11 23:48:00,33.3,25.6,29.93,SW,229,0.0,7.0,73,0.00,,OVC029,0.01,VWS V14.01,2013-03-12 04:48:00,
2013-03-11 23:49:00,33.3,25.6,29.93,West,259,0.0,7.0,73,0.00,,OVC029,0.01,VWS V14.01,2013-03-12 04:49:00,
2013-03-11 23:52:00,33.3,25.3,29.93,West,275,0.0,7.0,72,0.00,,OVC029,0.01,VWS V14.01,2013-03-12 04:52:00,
2013-03-11 23:53:00,33.3,25.3,29.93,West,275,0.0,7.0,72,0.00,,OVC029,0.01,VWS V14.01,2013-03-12 04:53:00,
2013-03-11 23:54:00,33.3,25.3,29.93,West,263,2.0,7.0,72,0.00,,OVC029,0.01,VWS V14.01,2013-03-12 04:54:00,
2013-03-11 23:58:00,33.1,24.4,29.93,WNW,282,4.0,10.0,70,0.00,,OVC029,0.01,VWS V14.01,2013-03-12 04:58:00,
2013-03-11 23:59:00,33.3,24.2,29.93,WSW,249,3.0,10.0,69,0.00,,OVC029,0.01,VWS V14.01,2013-03-12 04:59:00,